Time,TemperatureF,DewpointF,PressureIn,WindDirection,WindDirectionDegrees,WindSpeedMPH,WindSpeedGustMPH,Humidity,HourlyPrecipIn,Conditions,Clouds,dailyrainin,SoftwareType,DateUTC
2013-04-25 00:00:00,38.3,35.1,30.32,West,265,0.0,0.0,88,0.00,,,0.00,Wunderground v.1.15,2013-04-25 04:00:00,
2013-04-25 01:29:00,38.2,35.2,30.34,West,265,0.0,0.0,89,0.00,,,0.00,Wunderground v.1.15,2013-04-25 05:29:00,
2013-04-25 01:34:00,38.2,35.5,30.34,West,265,0.0,0.0,90,0.00,,,0.00,Wunderground v.1.15,2013-04-25 05:34:00,
2013-04-25 01:36:00,38.1,35.1,30.34,West,265,0.0,0.0,89,0.00,,,0.00,Wunderground v.1.15,2013-04-25 05:36:00,
2013-04-25 01:41:00,38.2,35.5,30.34,West,265,0.0,0.0,90,0.00,,,0.00,Wunderground v.1.15,2013-04-25 05:41:00,
2013-04-25 01:43:00,38.2,35.5,30.34,West,265,0.0,0.0,90,0.00,,,0.00,Wunderground v.1.15,2013-04-25 05:43:00,
2013-04-25 01:45:00,38.1,35.4,30.34,West,265,0.0,0.0,90,0.00,,,0.00,Wunderground v.1.15,2013-04-25 05:45:00,
2013-04-25 01:47:00,38.1,35.4,30.33,West,265,0.0,0.0,90,0.00,,,0.00,Wunderground v.1.15,2013-04-25 05:47:00,
2013-04-25 01:50:00,38.0,35.3,30.33,West,265,0.0,0.0,90,0.00,,,0.00,Wunderground v.1.15,2013-04-25 05:50:00,
2013-04-25 01:53:00,38.0,35.3,30.33,West,265,0.0,0.0,90,0.00,,,0.00,Wunderground v.1.15,2013-04-25 05:53:00,
2013-04-25 01:56:00,37.9,35.2,30.33,West,265,0.0,0.0,90,0.00,,,0.00,Wunderground v.1.15,2013-04-25 05:56:00,
2013-04-25 01:57:00,37.9,35.2,30.33,West,265,0.0,0.0,90,0.00,,,0.00,Wunderground v.1.15,2013-04-25 05:57:00,
2013-04-25 02:01:00,37.7,35.0,30.33,West,265,0.0,0.0,90,0.00,,,0.00,Wunderground v.1.15,2013-04-25 06:01:00,
2013-04-25 02:05:00,37.5,34.8,30.33,West,265,0.0,0.0,90,0.00,,,0.00,Wunderground v.1.15,2013-04-25 06:05:00,
2013-04-25 02:06:00,37.5,34.8,30.33,West,265,0.0,0.0,90,0.00,,,0.00,Wunderground v.1.15,2013-04-25 06:06:00,
2013-04-25 02:10:00,37.4,34.7,30.33,West,265,0.0,0.0,90,0.00,,,0.00,Wunderground v.1.15,2013-04-25 06:10:00,
2013-04-25 02:11:00,37.3,34.6,30.33,West,265,0.0,0.0,90,0.00,,,0.00,Wunderground v.1.15,2013-04-25 06:11:00,
2013-04-25 02:15:00,37.2,34.5,30.33,West,265,0.0,0.0,90,0.00,,,0.00,Wunderground v.1.15,2013-04-25 06:15:00,
2013-04-25 02:16:00,37.2,34.5,30.33,West,265,0.0,0.0,90,0.00,,,0.00,Wunderground v.1.15,2013-04-25 06:16:00,
2013-04-25 02:22:00,37.1,34.7,30.33,West,265,0.0,0.0,91,0.00,,,0.00,Wunderground v.1.15,2013-04-25 06:22:00,
2013-04-25 02:23:00,37.0,34.6,30.32,West,265,0.0,0.0,91,0.00,,,0.00,Wunderground v.1.15,2013-04-25 06:23:00,
2013-04-25 02:27:00,37.0,34.6,30.32,West,265,0.0,0.0,91,0.00,,,0.00,Wunderground v.1.15,2013-04-25 06:27:00,
2013-04-25 02:28:00,36.9,34.5,30.32,West,265,0.0,0.0,91,0.00,,,0.00,Wunderground v.1.15,2013-04-25 06:28:00,
2013-04-25 02:30:00,36.9,34.5,30.32,West,265,0.0,0.0,91,0.00,,,0.00,Wunderground v.1.15,2013-04-25 06:30:00,
2013-04-25 02:32:00,36.9,34.5,30.32,West,265,0.0,0.0,91,0.00,,,0.00,Wunderground v.1.15,2013-04-25 06:32:00,
2013-04-25 02:34:00,36.9,34.5,30.32,West,265,0.0,0.0,91,0.00,,,0.00,Wunderground v.1.15,2013-04-25 06:34:00,
2013-04-25 02:39:00,36.8,34.4,30.32,West,265,0.0,0.0,91,0.00,,,0.00,Wunderground v.1.15,2013-04-25 06:39:00,
2013-04-25 02:40:00,36.8,34.4,30.32,West,265,0.0,0.0,91,0.00,,,0.00,Wunderground v.1.15,2013-04-25 06:40:00,
2013-04-25 02:41:00,36.8,34.4,30.32,West,265,0.0,0.0,91,0.00,,,0.00,Wunderground v.1.15,2013-04-25 06:41:00,
2013-04-25 02:45:00,36.6,34.2,30.32,West,265,0.0,0.0,91,0.00,,,0.00,Wunderground v.1.15,2013-04-25 06:45:00,
2013-04-25 02:47:00,36.6,34.2,30.32,West,265,0.0,0.0,91,0.00,,,0.00,Wunderground v.1.15,2013-04-25 06:47:00,
2013-04-25 02:48:00,36.6,34.2,30.32,West,265,0.0,0.0,91,0.00,,,0.00,Wunderground v.1.15,2013-04-25 06:48:00,
2013-04-25 02:50:00,36.6,34.2,30.32,West,265,0.0,0.0,91,0.00,,,0.00,Wunderground v.1.15,2013-04-25 06:50:00,
2013-04-25 02:54:00,36.5,34.1,30.32,West,265,0.0,0.0,91,0.00,,,0.00,Wunderground v.1.15,2013-04-25 06:54:00,
2013-04-25 02:56:00,36.4,34.0,30.32,West,265,0.0,0.0,91,0.00,,,0.00,Wunderground v.1.15,2013-04-25 06:56:00,
2013-04-25 03:01:00,36.2,33.8,30.31,West,265,0.0,0.0,91,0.00,,,0.00,Wunderground v.1.15,2013-04-25 07:01:00,
2013-04-25 03:02:00,36.2,33.8,30.31,West,265,0.0,0.0,91,0.00,,,0.00,Wunderground v.1.15,2013-04-25 07:02:00,
2013-04-25 03:05:00,36.0,33.6,30.32,West,265,0.0,0.0,91,0.00,,,0.00,Wunderground v.1.15,2013-04-25 07:05:00,
2013-04-25 03:07:00,35.9,33.5,30.32,West,265,0.0,0.0,91,0.00,,,0.00,Wunderground v.1.15,2013-04-25 07:07:00,
2013-04-25 03:08:00,35.9,33.5,30.32,West,265,0.0,0.0,91,0.00,,,0.00,Wunderground v.1.15,2013-04-25 07:08:00,
2013-04-25 03:10:00,35.7,33.3,30.32,West,265,0.0,0.0,91,0.00,,,0.00,Wunderground v.1.15,2013-04-25 07:10:00,
2013-04-25 03:13:00,35.7,33.3,30.32,West,265,0.0,0.0,91,0.00,,,0.00,Wunderground v.1.15,2013-04-25 07:13:00,
2013-04-25 03:15:00,35.6,33.2,30.32,West,265,0.0,0.0,91,0.00,,,0.00,Wunderground v.1.15,2013-04-25 07:15:00,
2013-04-25 03:17:00,35.6,33.2,30.32,West,265,0.0,0.0,91,0.00,,,0.00,Wunderground v.1.15,2013-04-25 07:17:00,
2013-04-25 03:20:00,35.5,33.1,30.32,West,265,0.0,0.0,91,0.00,,,0.00,Wunderground v.1.15,2013-04-25 07:20:00,
2013-04-25 03:22:00,35.5,33.1,30.32,West,265,0.0,0.0,91,0.00,,,0.00,Wunderground v.1.15,2013-04-25 07:22:00,
2013-04-25 03:25:00,35.4,33.0,30.32,West,265,0.0,0.0,91,0.00,,,0.00,Wunderground v.1.15,2013-04-25 07:25:00,
2013-04-25 03:28:00,35.4,33.0,30.32,West,265,0.0,0.0,91,0.00,,,0.00,Wunderground v.1.15,2013-04-25 07:28:00,
2013-04-25 03:29:00,35.4,33.0,30.32,West,265,0.0,0.0,91,0.00,,,0.00,Wunderground v.1.15,2013-04-25 07:29:00,
2013-04-25 03:30:00,35.3,33.2,30.32,West,265,0.0,0.0,92,0.00,,,0.00,Wunderground v.1.15,2013-04-25 07:30:00,
2013-04-25 03:34:00,35.3,33.2,30.32,West,265,0.0,0.0,92,0.00,,,0.00,Wunderground v.1.15,2013-04-25 07:34:00,
2013-04-25 03:35:00,35.3,33.2,30.32,West,265,0.0,0.0,92,0.00,,,0.00,Wunderground v.1.15,2013-04-25 07:35:00,
2013-04-25 03:36:00,35.2,33.1,30.32,West,265,0.0,0.0,92,0.00,,,0.00,Wunderground v.1.15,2013-04-25 07:36:00,
2013-04-25 03:38:00,35.1,33.0,30.32,West,265,0.0,0.0,92,0.00,,,0.00,Wunderground v.1.15,2013-04-25 07:38:00,
2013-04-25 03:40:00,35.0,32.9,30.33,West,265,0.0,0.0,92,0.00,,,0.00,Wunderground v.1.15,2013-04-25 07:40:00,
2013-04-25 03:42:00,34.9,32.8,30.33,West,265,0.0,0.0,92,0.00,,,0.00,Wunderground v.1.15,2013-04-25 07:42:00,
2013-04-25 03:45:00,34.8,32.7,30.32,West,265,0.0,0.0,92,0.00,,,0.00,Wunderground v.1.15,2013-04-25 07:45:00,
2013-04-25 03:49:00,34.6,32.5,30.33,West,265,0.0,0.0,92,0.00,,,0.00,Wunderground v.1.15,2013-04-25 07:49:00,
2013-04-25 03:50:00,34.6,32.5,30.32,West,265,0.0,0.0,92,0.00,,,0.00,Wunderground v.1.15,2013-04-25 07:50:00,
2013-04-25 03:51:00,34.6,32.5,30.33,West,265,0.0,0.0,92,0.00,,,0.00,Wunderground v.1.15,2013-04-25 07:51:00,
2013-04-25 03:54:00,34.5,32.4,30.33,West,265,0.0,0.0,92,0.00,,,0.00,Wunderground v.1.15,2013-04-25 07:54:00,
2013-04-25 03:57:00,34.6,32.5,30.33,West,265,0.0,0.0,92,0.00,,,0.00,Wunderground v.1.15,2013-04-25 07:57:00,
2013-04-25 03:59:00,34.7,32.6,30.33,West,265,0.0,0.0,92,0.00,,,0.00,Wunderground v.1.15,2013-04-25 07:59:00,
2013-04-25 04:02:00,34.8,32.7,30.33,West,265,0.0,0.0,92,0.00,,,0.00,Wunderground v.1.15,2013-04-25 08:02:00,
2013-04-25 04:04:00,34.8,32.7,30.33,West,265,0.0,0.0,92,0.00,,,0.00,Wunderground v.1.15,2013-04-25 08:04:00,
2013-04-25 04:06:00,34.8,32.7,30.33,West,265,0.0,0.0,92,0.00,,,0.00,Wunderground v.1.15,2013-04-25 08:06:00,
2013-04-25 04:07:00,34.8,32.7,30.33,West,265,0.0,0.0,92,0.00,,,0.00,Wunderground v.1.15,2013-04-25 08:07:00,
2013-04-25 04:09:00,34.8,32.7,30.33,West,265,0.0,0.0,92,0.00,,,0.00,Wunderground v.1.15,2013-04-25 08:09:00,
2013-04-25 04:11:00,34.9,32.8,30.33,West,265,0.0,0.0,92,0.00,,,0.00,Wunderground v.1.15,2013-04-25 08:11:00,
2013-04-25 04:12:00,34.9,32.8,30.33,West,265,0.0,0.0,92,0.00,,,0.00,Wunderground v.1.15,2013-04-25 08:12:00,
2013-04-25 04:14:00,34.9,32.8,30.33,West,265,0.0,0.0,92,0.00,,,0.00,Wunderground v.1.15,2013-04-25 08:14:00,
2013-04-25 04:17:00,34.9,33.1,30.33,West,265,0.0,0.0,93,0.00,,,0.00,Wunderground v.1.15,2013-04-25 08:17:00,
2013-04-25 04:18:00,34.9,33.1,30.33,West,265,0.0,0.0,93,0.00,,,0.00,Wunderground v.1.15,2013-04-25 08:18:00,
2013-04-25 04:19:00,34.9,33.1,30.33,West,265,0.0,0.0,93,0.00,,,0.00,Wunderground v.1.15,2013-04-25 08:19:00,
2013-04-25 04:20:00,35.0,33.2,30.33,West,265,0.0,0.0,93,0.00,,,0.00,Wunderground v.1.15,2013-04-25 08:20:00,
2013-04-25 04:24:00,34.9,33.1,30.33,West,265,0.0,0.0,93,0.00,,,0.00,Wunderground v.1.15,2013-04-25 08:24:00,
2013-04-25 04:26:00,34.9,33.1,30.33,West,265,0.0,0.0,93,0.00,,,0.00,Wunderground v.1.15,2013-04-25 08:26:00,
2013-04-25 04:29:00,34.9,33.1,30.33,West,265,0.0,0.0,93,0.00,,,0.00,Wunderground v.1.15,2013-04-25 08:29:00,
2013-04-25 04:30:00,34.9,33.1,30.33,West,265,0.0,0.0,93,0.00,,,0.00,Wunderground v.1.15,2013-04-25 08:30:00,
2013-04-25 04:32:00,34.8,33.0,30.33,West,265,0.0,0.0,93,0.00,,,0.00,Wunderground v.1.15,2013-04-25 08:32:00,
2013-04-25 04:34:00,34.8,33.0,30.33,West,265,0.0,0.0,93,0.00,,,0.00,Wunderground v.1.15,2013-04-25 08:34:00,
2013-04-25 04:35:00,34.8,33.0,30.33,West,265,0.0,0.0,93,0.00,,,0.00,Wunderground v.1.15,2013-04-25 08:35:00,
2013-04-25 04:38:00,34.6,32.5,30.33,West,265,0.0,0.0,92,0.00,,,0.00,Wunderground v.1.15,2013-04-25 08:38:00,
2013-04-25 04:41:00,34.2,32.1,30.33,West,265,0.0,0.0,92,0.00,,,0.00,Wunderground v.1.15,2013-04-25 08:41:00,
2013-04-25 04:43:00,34.2,32.1,30.33,West,265,0.0,0.0,92,0.00,,,0.00,Wunderground v.1.15,2013-04-25 08:43:00,
2013-04-25 04:44:00,34.1,32.0,30.33,West,265,0.0,0.0,92,0.00,,,0.00,Wunderground v.1.15,2013-04-25 08:44:00,
2013-04-25 04:46:00,34.0,31.9,30.33,West,265,0.0,0.0,92,0.00,,,0.00,Wunderground v.1.15,2013-04-25 08:46:00,
2013-04-25 04:48:00,33.9,31.8,30.33,West,265,0.0,0.0,92,0.00,,,0.00,Wunderground v.1.15,2013-04-25 08:48:00,
2013-04-25 04:50:00,33.9,31.8,30.33,West,265,0.0,0.0,92,0.00,,,0.00,Wunderground v.1.15,2013-04-25 08:50:00,
2013-04-25 04:53:00,34.0,31.9,30.33,West,265,0.0,0.0,92,0.00,,,0.00,Wunderground v.1.15,2013-04-25 08:53:00,
2013-04-25 04:54:00,33.9,31.8,30.33,West,265,0.0,0.0,92,0.00,,,0.00,Wunderground v.1.15,2013-04-25 08:54:00,
2013-04-25 04:57:00,34.1,32.3,30.33,West,265,0.0,0.0,93,0.00,,,0.00,Wunderground v.1.15,2013-04-25 08:57:00,
2013-04-25 04:58:00,34.1,32.3,30.33,West,265,0.0,0.0,93,0.00,,,0.00,Wunderground v.1.15,2013-04-25 08:58:00,
2013-04-25 05:00:00,34.1,32.3,30.33,West,265,0.0,0.0,93,0.00,,,0.00,Wunderground v.1.15,2013-04-25 09:00:00,
2013-04-25 05:03:00,34.0,32.2,30.33,West,265,0.0,0.0,93,0.00,,,0.00,Wunderground v.1.15,2013-04-25 09:03:00,
2013-04-25 05:05:00,33.9,31.8,30.33,West,265,0.0,0.0,92,0.00,,,0.00,Wunderground v.1.15,2013-04-25 09:05:00,
2013-04-25 05:08:00,33.7,31.6,30.33,West,265,0.0,0.0,92,0.00,,,0.00,Wunderground v.1.15,2013-04-25 09:08:00,
2013-04-25 05:12:00,33.6,31.8,30.33,West,265,0.0,0.0,93,0.00,,,0.00,Wunderground v.1.15,2013-04-25 09:12:00,
2013-04-25 05:13:00,33.6,31.5,30.33,West,265,0.0,0.0,92,0.00,,,0.00,Wunderground v.1.15,2013-04-25 09:13:00,
2013-04-25 05:14:00,33.6,31.5,30.33,West,265,0.0,0.0,92,0.00,,,0.00,Wunderground v.1.15,2013-04-25 09:14:00,
2013-04-25 05:19:00,33.6,31.8,30.33,West,265,0.0,0.0,93,0.00,,,0.00,Wunderground v.1.15,2013-04-25 09:19:00,
2013-04-25 05:20:00,33.6,31.8,30.33,West,265,0.0,0.0,93,0.00,,,0.00,Wunderground v.1.15,2013-04-25 09:20:00,
2013-04-25 05:22:00,33.6,31.8,30.33,West,265,0.0,0.0,93,0.00,,,0.00,Wunderground v.1.15,2013-04-25 09:22:00,
2013-04-25 05:25:00,33.7,31.9,30.33,West,265,0.0,0.0,93,0.00,,,0.00,Wunderground v.1.15,2013-04-25 09:25:00,
2013-04-25 05:26:00,33.7,31.9,30.34,West,265,0.0,0.0,93,0.00,,,0.00,Wunderground v.1.15,2013-04-25 09:26:00,
2013-04-25 05:28:00,33.7,31.9,30.34,West,265,0.0,0.0,93,0.00,,,0.00,Wunderground v.1.15,2013-04-25 09:28:00,
2013-04-25 05:31:00,33.9,32.1,30.34,West,264,0.0,0.0,93,0.00,,,0.00,Wunderground v.1.15,2013-04-25 09:31:00,
2013-04-25 05:33:00,33.9,32.1,30.34,West,264,0.0,0.0,93,0.00,,,0.00,Wunderground v.1.15,2013-04-25 09:33:00,
2013-04-25 05:36:00,33.9,32.1,30.34,West,264,0.0,0.0,93,0.00,,,0.00,Wunderground v.1.15,2013-04-25 09:36:00,
2013-04-25 05:37:00,33.9,32.1,30.34,West,264,0.0,0.0,93,0.00,,,0.00,Wunderground v.1.15,2013-04-25 09:37:00,
2013-04-25 05:39:00,33.8,32.0,30.34,West,264,0.0,0.0,93,0.00,,,0.00,Wunderground v.1.15,2013-04-25 09:39:00,
2013-04-25 05:41:00,33.5,31.7,30.34,West,264,0.0,0.0,93,0.00,,,0.00,Wunderground v.1.15,2013-04-25 09:41:00,
2013-04-25 05:42:00,33.3,31.5,30.34,West,264,0.0,0.0,93,0.00,,,0.00,Wunderground v.1.15,2013-04-25 09:42:00,
2013-04-25 05:46:00,32.9,31.1,30.34,West,264,0.0,0.0,93,0.00,,,0.00,Wunderground v.1.15,2013-04-25 09:46:00,
2013-04-25 05:47:00,32.8,30.7,30.34,West,264,0.0,0.0,92,0.00,,,0.00,Wunderground v.1.15,2013-04-25 09:47:00,
2013-04-25 05:49:00,32.7,30.6,30.34,West,264,0.0,0.0,92,0.00,,,0.00,Wunderground v.1.15,2013-04-25 09:49:00,
2013-04-25 05:51:00,32.6,30.8,30.34,West,264,0.0,0.0,93,0.00,,,0.00,Wunderground v.1.15,2013-04-25 09:51:00,
2013-04-25 05:53:00,32.6,30.8,30.35,West,264,0.0,0.0,93,0.00,,,0.00,Wunderground v.1.15,2013-04-25 09:53:00,
2013-04-25 05:56:00,32.4,30.6,30.35,West,264,0.0,0.0,93,0.00,,,0.00,Wunderground v.1.15,2013-04-25 09:56:00,
2013-04-25 05:58:00,32.4,30.6,30.35,West,264,0.0,0.0,93,0.00,,,0.00,Wunderground v.1.15,2013-04-25 09:58:00,
2013-04-25 05:59:00,32.3,30.5,30.35,West,264,0.0,0.0,93,0.00,,,0.00,Wunderground v.1.15,2013-04-25 09:59:00,
2013-04-25 06:01:00,32.2,30.4,30.35,West,264,0.0,0.0,93,0.00,,,0.00,Wunderground v.1.15,2013-04-25 10:01:00,
2013-04-25 06:03:00,32.1,30.3,30.35,West,264,0.0,0.0,93,0.00,,,0.00,Wunderground v.1.15,2013-04-25 10:03:00,
2013-04-25 06:06:00,32.1,30.3,30.36,West,264,0.0,0.0,93,0.00,,,0.00,Wunderground v.1.15,2013-04-25 10:06:00,
2013-04-25 06:08:00,32.2,30.4,30.35,West,264,0.0,0.0,93,0.00,,,0.00,Wunderground v.1.15,2013-04-25 10:08:00,
2013-04-25 06:10:00,32.2,30.4,30.35,West,264,0.0,0.0,93,0.00,,,0.00,Wunderground v.1.15,2013-04-25 10:10:00,
2013-04-25 06:11:00,32.3,30.5,30.36,West,264,0.0,0.0,93,0.00,,,0.00,Wunderground v.1.15,2013-04-25 10:11:00,
2013-04-25 06:13:00,32.5,30.7,30.36,West,264,0.0,0.0,93,0.00,,,0.00,Wunderground v.1.15,2013-04-25 10:13:00,
2013-04-25 06:15:00,32.5,30.7,30.36,West,264,0.0,0.0,93,0.00,,,0.00,Wunderground v.1.15,2013-04-25 10:15:00,
2013-04-25 06:17:00,32.7,30.9,30.36,West,264,0.0,0.0,93,0.00,,,0.00,Wunderground v.1.15,2013-04-25 10:17:00,
2013-04-25 06:18:00,32.7,30.9,30.36,West,264,0.0,0.0,93,0.00,,,0.00,Wunderground v.1.15,2013-04-25 10:18:00,
2013-04-25 06:19:00,32.7,30.9,30.36,West,264,0.0,0.0,93,0.00,,,0.00,Wunderground v.1.15,2013-04-25 10:19:00,
2013-04-25 06:22:00,32.8,31.0,30.36,West,264,0.0,0.0,93,0.00,,,0.00,Wunderground v.1.15,2013-04-25 10:22:00,
2013-04-25 06:24:00,32.8,31.0,30.36,West,264,0.0,0.0,93,0.00,,,0.00,Wunderground v.1.15,2013-04-25 10:24:00,
2013-04-25 06:26:00,32.9,31.1,30.36,West,264,0.0,0.0,93,0.00,,,0.00,Wunderground v.1.15,2013-04-25 10:26:00,
2013-04-25 06:28:00,33.0,31.2,30.36,West,264,0.0,0.0,93,0.00,,,0.00,Wunderground v.1.15,2013-04-25 10:28:00,
2013-04-25 06:29:00,33.1,31.3,30.36,West,264,0.0,0.0,93,0.00,,,0.00,Wunderground v.1.15,2013-04-25 10:29:00,
2013-04-25 06:32:00,33.2,31.4,30.36,West,264,0.0,0.0,93,0.00,,,0.00,Wunderground v.1.15,2013-04-25 10:32:00,
2013-04-25 06:33:00,33.2,31.4,30.36,West,264,0.0,0.0,93,0.00,,,0.00,Wunderground v.1.15,2013-04-25 10:33:00,
2013-04-25 06:34:00,33.2,31.4,30.36,West,264,0.0,0.0,93,0.00,,,0.00,Wunderground v.1.15,2013-04-25 10:34:00,
2013-04-25 06:36:00,33.3,31.5,30.36,West,264,0.0,0.0,93,0.00,,,0.00,Wunderground v.1.15,2013-04-25 10:36:00,
2013-04-25 06:39:00,33.4,31.6,30.36,West,264,0.0,0.0,93,0.00,,,0.00,Wunderground v.1.15,2013-04-25 10:39:00,
2013-04-25 06:40:00,33.3,31.5,30.36,West,264,0.0,0.0,93,0.00,,,0.00,Wunderground v.1.15,2013-04-25 10:40:00,
2013-04-25 06:42:00,33.3,31.5,30.36,West,264,0.0,0.0,93,0.00,,,0.00,Wunderground v.1.15,2013-04-25 10:42:00,
2013-04-25 06:43:00,33.3,31.5,30.36,West,264,0.0,0.0,93,0.00,,,0.00,Wunderground v.1.15,2013-04-25 10:43:00,
2013-04-25 06:45:00,33.3,31.5,30.36,West,264,0.0,0.0,93,0.00,,,0.00,Wunderground v.1.15,2013-04-25 10:45:00,
2013-04-25 06:48:00,33.3,31.5,30.36,West,264,0.0,0.0,93,0.00,,,0.00,Wunderground v.1.15,2013-04-25 10:48:00,
2013-04-25 06:50:00,33.4,31.6,30.36,West,264,0.0,0.0,93,0.00,,,0.00,Wunderground v.1.15,2013-04-25 10:50:00,
2013-04-25 06:53:00,33.4,31.6,30.36,West,264,0.0,0.0,93,0.00,,,0.00,Wunderground v.1.15,2013-04-25 10:53:00,
2013-04-25 06:54:00,33.4,31.6,30.36,West,264,0.0,0.0,93,0.00,,,0.00,Wunderground v.1.15,2013-04-25 10:54:00,
2013-04-25 06:55:00,33.4,31.6,30.36,West,264,0.0,0.0,93,0.00,,,0.00,Wunderground v.1.15,2013-04-25 10:55:00,
2013-04-25 06:57:00,33.5,31.7,30.36,West,264,0.0,0.0,93,0.00,,,0.00,Wunderground v.1.15,2013-04-25 10:57:00,
2013-04-25 06:58:00,33.5,31.7,30.37,West,264,0.0,0.0,93,0.00,,,0.00,Wunderground v.1.15,2013-04-25 10:58:00,
2013-04-25 07:00:00,33.6,31.8,30.36,West,264,0.0,0.0,93,0.00,,,0.00,Wunderground v.1.15,2013-04-25 11:00:00,
2013-04-25 07:05:00,33.7,32.2,30.36,West,264,0.0,0.0,94,0.00,,,0.00,Wunderground v.1.15,2013-04-25 11:05:00,
2013-04-25 07:07:00,33.7,32.2,30.37,West,264,0.0,0.0,94,0.00,,,0.00,Wunderground v.1.15,2013-04-25 11:07:00,
2013-04-25 07:09:00,33.7,32.2,30.37,West,264,0.0,0.0,94,0.00,,,0.00,Wunderground v.1.15,2013-04-25 11:09:00,
2013-04-25 07:12:00,33.7,32.2,30.37,West,264,0.0,0.0,94,0.00,,,0.00,Wunderground v.1.15,2013-04-25 11:12:00,
2013-04-25 07:14:00,33.7,32.2,30.37,West,264,0.0,0.0,94,0.00,,,0.00,Wunderground v.1.15,2013-04-25 11:14:00,
2013-04-25 07:15:00,33.7,32.2,30.37,West,264,0.0,0.0,94,0.00,,,0.00,Wunderground v.1.15,2013-04-25 11:15:00,
2013-04-25 07:20:00,33.8,32.3,30.36,West,264,0.0,0.0,94,0.00,,,0.00,Wunderground v.1.15,2013-04-25 11:20:00,
2013-04-25 07:21:00,33.9,32.1,30.37,West,264,0.0,0.0,93,0.00,,,0.00,Wunderground v.1.15,2013-04-25 11:21:00,
2013-04-25 07:22:00,33.9,32.1,30.36,West,264,0.0,0.0,93,0.00,,,0.00,Wunderground v.1.15,2013-04-25 11:22:00,
2013-04-25 07:25:00,34.0,32.2,30.37,WSW,254,0.0,0.0,93,0.00,,,0.00,Wunderground v.1.15,2013-04-25 11:25:00,
2013-04-25 07:26:00,34.0,32.5,30.36,WSW,254,0.0,0.0,94,0.00,,,0.00,Wunderground v.1.15,2013-04-25 11:26:00,
2013-04-25 07:28:00,34.1,32.6,30.37,WSW,254,0.0,0.0,94,0.00,,,0.00,Wunderground v.1.15,2013-04-25 11:28:00,
2013-04-25 07:32:00,34.1,32.6,30.36,WSW,254,0.0,0.0,94,0.00,,,0.00,Wunderground v.1.15,2013-04-25 11:32:00,
2013-04-25 07:34:00,34.0,32.5,30.37,WSW,254,0.0,0.0,94,0.00,,,0.00,Wunderground v.1.15,2013-04-25 11:34:00,
2013-04-25 07:40:00,34.1,32.6,30.37,WSW,253,0.0,0.0,94,0.00,,,0.00,Wunderground v.1.15,2013-04-25 11:40:00,
2013-04-25 07:41:00,34.1,32.6,30.37,WSW,253,0.0,0.0,94,0.00,,,0.00,Wunderground v.1.15,2013-04-25 11:41:00,
2013-04-25 07:46:00,34.3,32.8,30.37,WSW,254,0.0,0.0,94,0.00,,,0.00,Wunderground v.1.15,2013-04-25 11:46:00,
2013-04-25 07:47:00,34.4,32.9,30.37,WSW,253,0.0,0.0,94,0.00,,,0.00,Wunderground v.1.15,2013-04-25 11:47:00,
2013-04-25 07:51:00,34.6,33.1,30.37,WSW,253,0.0,0.0,94,0.00,,,0.00,Wunderground v.1.15,2013-04-25 11:51:00,
2013-04-25 07:52:00,34.6,33.1,30.37,WSW,253,0.0,0.0,94,0.00,,,0.00,Wunderground v.1.15,2013-04-25 11:52:00,
2013-04-25 07:53:00,34.7,33.2,30.37,WSW,253,0.0,0.0,94,0.00,,,0.00,Wunderground v.1.15,2013-04-25 11:53:00,
2013-04-25 07:55:00,34.8,33.2,30.37,WSW,253,0.0,0.0,94,0.00,,,0.00,Wunderground v.1.15,2013-04-25 11:55:00,
2013-04-25 07:56:00,34.8,33.2,30.37,WSW,253,0.0,0.0,94,0.00,,,0.00,Wunderground v.1.15,2013-04-25 11:56:00,
2013-04-25 07:59:00,35.0,33.4,30.37,WSW,253,0.0,0.0,94,0.00,,,0.00,Wunderground v.1.15,2013-04-25 11:59:00,
2013-04-25 08:01:00,35.1,33.5,30.37,WSW,253,0.0,0.0,94,0.00,,,0.00,Wunderground v.1.15,2013-04-25 12:01:00,
2013-04-25 08:03:00,35.2,33.6,30.37,WSW,238,0.0,0.0,94,0.00,,,0.00,Wunderground v.1.15,2013-04-25 12:03:00,
2013-04-25 08:08:00,35.5,33.9,30.37,WSW,238,0.0,1.0,94,0.00,,,0.00,Wunderground v.1.15,2013-04-25 12:08:00,
2013-04-25 08:09:00,35.5,33.9,30.37,WSW,238,0.0,1.0,94,0.00,,,0.00,Wunderground v.1.15,2013-04-25 12:09:00,
2013-04-25 08:13:00,35.7,34.1,30.38,WSW,237,0.0,0.0,94,0.00,,,0.00,Wunderground v.1.15,2013-04-25 12:13:00,
2013-04-25 08:15:00,35.8,34.2,30.38,WSW,237,0.0,0.0,94,0.00,,,0.00,Wunderground v.1.15,2013-04-25 12:15:00,
2013-04-25 08:19:00,35.9,34.3,30.38,SW,236,0.0,0.0,94,0.00,,,0.00,Wunderground v.1.15,2013-04-25 12:19:00,
2013-04-25 08:20:00,35.9,34.3,30.38,SW,223,0.0,1.0,94,0.00,,,0.00,Wunderground v.1.15,2013-04-25 12:20:00,
2013-04-25 08:21:00,36.0,34.4,30.39,SW,225,0.0,1.0,94,0.00,,,0.00,Wunderground v.1.15,2013-04-25 12:21:00,
2013-04-25 08:27:00,36.3,34.7,30.39,WNW,294,0.0,1.0,94,0.00,,,0.00,Wunderground v.1.15,2013-04-25 12:27:00,
2013-04-25 08:29:00,36.5,34.9,30.39,SW,226,0.0,1.0,94,0.00,,,0.00,Wunderground v.1.15,2013-04-25 12:29:00,
2013-04-25 08:30:00,36.6,35.0,30.39,SW,226,0.0,1.0,94,0.00,,,0.00,Wunderground v.1.15,2013-04-25 12:30:00,
2013-04-25 08:34:00,36.8,35.2,30.39,SW,226,0.0,2.0,94,0.00,,,0.00,Wunderground v.1.15,2013-04-25 12:34:00,
2013-04-25 08:37:00,37.0,35.4,30.40,WSW,256,0.0,2.0,94,0.00,,,0.00,Wunderground v.1.15,2013-04-25 12:37:00,
2013-04-25 08:41:00,37.5,35.9,30.40,SW,219,0.0,2.0,94,0.00,,,0.00,Wunderground v.1.15,2013-04-25 12:41:00,
2013-04-25 08:44:00,37.8,36.2,30.40,SW,219,0.0,1.0,94,0.00,,,0.00,Wunderground v.1.15,2013-04-25 12:44:00,
2013-04-25 08:46:00,37.9,36.3,30.40,WSW,244,1.0,2.0,94,0.00,,,0.00,Wunderground v.1.15,2013-04-25 12:46:00,
2013-04-25 08:48:00,38.0,36.4,30.40,SW,219,1.0,2.0,94,0.00,,,0.00,Wunderground v.1.15,2013-04-25 12:48:00,
2013-04-25 08:52:00,38.4,36.8,30.40,SW,225,1.0,3.0,94,0.00,,,0.00,Wunderground v.1.15,2013-04-25 12:52:00,
2013-04-25 08:54:00,38.5,36.9,30.40,SSW,198,2.0,2.0,94,0.00,,,0.00,Wunderground v.1.15,2013-04-25 12:54:00,
2013-04-25 08:58:00,38.9,37.3,30.40,SSW,197,2.0,2.0,94,0.00,,,0.00,Wunderground v.1.15,2013-04-25 12:58:00,
2013-04-25 09:01:00,39.2,37.6,30.40,SSW,196,2.0,6.0,94,0.00,,,0.00,Wunderground v.1.15,2013-04-25 13:01:00,
2013-04-25 09:02:00,39.3,37.7,30.40,SSW,213,1.0,6.0,94,0.00,,,0.00,Wunderground v.1.15,2013-04-25 13:02:00,
2013-04-25 09:07:00,39.9,38.0,30.40,SW,229,2.0,3.0,93,0.00,,,0.00,Wunderground v.1.15,2013-04-25 13:07:00,
2013-04-25 09:09:00,40.2,38.1,30.40,SW,229,1.0,3.0,92,0.00,,,0.00,Wunderground v.1.15,2013-04-25 13:09:00,
2013-04-25 09:12:00,40.5,38.4,30.40,SW,233,1.0,5.0,92,0.00,,,0.00,Wunderground v.1.15,2013-04-25 13:12:00,
2013-04-25 09:13:00,40.7,38.6,30.40,West,269,1.0,1.0,92,0.00,,,0.00,Wunderground v.1.15,2013-04-25 13:13:00,
2013-04-25 09:18:00,41.5,38.8,30.40,SW,232,1.0,2.0,90,0.00,,,0.00,Wunderground v.1.15,2013-04-25 13:18:00,
2013-04-25 09:19:00,41.5,38.5,30.40,SW,232,1.0,2.0,89,0.00,,,0.00,Wunderground v.1.15,2013-04-25 13:19:00,
2013-04-25 09:21:00,41.8,38.8,30.40,SW,234,1.0,2.0,89,0.00,,,0.00,Wunderground v.1.15,2013-04-25 13:21:00,
2013-04-25 09:24:00,42.4,38.2,30.39,South,191,1.0,1.0,85,0.00,,,0.00,Wunderground v.1.15,2013-04-25 13:24:00,
2013-04-25 09:29:00,43.1,38.0,30.39,South,190,2.0,4.0,82,0.00,,,0.00,Wunderground v.1.15,2013-04-25 13:29:00,
2013-04-25 09:30:00,43.1,38.0,30.39,South,191,2.0,4.0,82,0.00,,,0.00,Wunderground v.1.15,2013-04-25 13:30:00,
2013-04-25 09:31:00,43.3,38.2,30.39,SSW,208,2.0,4.0,82,0.00,,,0.00,Wunderground v.1.15,2013-04-25 13:31:00,
2013-04-25 09:34:00,43.7,38.6,30.39,SW,219,1.0,2.0,82,0.00,,,0.00,Wunderground v.1.15,2013-04-25 13:34:00,
2013-04-25 09:36:00,43.8,38.3,30.38,SE,141,1.0,2.0,81,0.00,,,0.00,Wunderground v.1.15,2013-04-25 13:36:00,
2013-04-25 09:37:00,44.1,39.0,30.39,SSW,195,1.0,3.0,82,0.00,,,0.00,Wunderground v.1.15,2013-04-25 13:37:00,
2013-04-25 09:38:00,44.2,38.7,30.39,SSW,207,1.0,4.0,81,0.00,,,0.00,Wunderground v.1.15,2013-04-25 13:38:00,
2013-04-25 09:43:00,44.7,37.9,30.39,WSW,250,2.0,4.0,77,0.00,,,0.00,Wunderground v.1.15,2013-04-25 13:43:00,
2013-04-25 09:44:00,44.8,38.0,30.39,South,170,2.0,2.0,77,0.00,,,0.00,Wunderground v.1.15,2013-04-25 13:44:00,
2013-04-25 09:48:00,45.3,37.8,30.39,WNW,290,2.0,4.0,75,0.00,,,0.00,Wunderground v.1.15,2013-04-25 13:48:00,
2013-04-25 09:51:00,45.5,37.0,30.39,SW,216,3.0,6.0,72,0.00,,,0.00,Wunderground v.1.15,2013-04-25 13:51:00,
2013-04-25 09:52:00,45.6,37.4,30.39,SW,221,3.0,6.0,73,0.00,,,0.00,Wunderground v.1.15,2013-04-25 13:52:00,
2013-04-25 09:54:00,45.7,38.2,30.40,West,265,3.0,3.0,75,0.00,,,0.00,Wunderground v.1.15,2013-04-25 13:54:00,
2013-04-25 09:56:00,45.8,38.0,30.40,SSE,158,3.0,3.0,74,0.00,,,0.00,Wunderground v.1.15,2013-04-25 13:56:00,
2013-04-25 09:58:00,46.0,37.5,30.40,SSW,202,2.0,4.0,72,0.00,,,0.00,Wunderground v.1.15,2013-04-25 13:58:00,
2013-04-25 10:00:00,46.1,37.6,30.40,SSW,198,2.0,4.0,72,0.00,,,0.00,Wunderground v.1.15,2013-04-25 14:00:00,
2013-04-25 10:04:00,46.5,38.3,30.40,WSW,253,2.0,4.0,73,0.00,,,0.00,Wunderground v.1.15,2013-04-25 14:04:00,
2013-04-25 10:06:00,46.6,37.3,30.39,West,278,3.0,4.0,70,0.00,,,0.00,Wunderground v.1.15,2013-04-25 14:06:00,
2013-04-25 10:08:00,46.8,37.5,30.39,SW,218,3.0,4.0,70,0.00,,,0.00,Wunderground v.1.15,2013-04-25 14:08:00,
2013-04-25 10:11:00,47.0,37.4,30.40,South,178,3.0,4.0,69,0.00,,,0.00,Wunderground v.1.15,2013-04-25 14:11:00,
2013-04-25 10:12:00,47.1,37.4,30.40,SSW,205,3.0,4.0,69,0.00,,,0.00,Wunderground v.1.15,2013-04-25 14:12:00,
2013-04-25 10:16:00,47.3,37.6,30.40,SSW,199,3.0,7.0,69,0.00,,,0.00,Wunderground v.1.15,2013-04-25 14:16:00,
2013-04-25 10:18:00,47.5,37.5,30.40,SSW,210,3.0,7.0,68,0.00,,,0.00,Wunderground v.1.15,2013-04-25 14:18:00,
2013-04-25 10:19:00,47.5,37.5,30.40,SSW,207,2.0,7.0,68,0.00,,,0.00,Wunderground v.1.15,2013-04-25 14:19:00,
2013-04-25 10:22:00,47.8,37.7,30.40,SW,232,3.0,7.0,68,0.00,,,0.00,Wunderground v.1.15,2013-04-25 14:22:00,
2013-04-25 10:23:00,47.9,38.2,30.40,WSW,257,3.0,7.0,69,0.00,,,0.00,Wunderground v.1.15,2013-04-25 14:23:00,
2013-04-25 10:24:00,48.0,37.9,30.40,SW,223,3.0,3.0,68,0.00,,,0.00,Wunderground v.1.15,2013-04-25 14:24:00,
2013-04-25 10:26:00,48.2,37.4,30.40,South,185,3.0,4.0,66,0.00,,,0.00,Wunderground v.1.15,2013-04-25 14:26:00,
2013-04-25 10:28:00,48.3,37.5,30.40,WNW,283,3.0,4.0,66,0.00,,,0.00,Wunderground v.1.15,2013-04-25 14:28:00,
2013-04-25 10:29:00,48.3,37.1,30.40,West,269,3.0,4.0,65,0.00,,,0.00,Wunderground v.1.15,2013-04-25 14:29:00,
2013-04-25 10:30:00,48.4,37.9,30.40,South,172,3.0,4.0,67,0.00,,,0.00,Wunderground v.1.15,2013-04-25 14:30:00,
2013-04-25 10:31:00,48.6,38.5,30.40,SSW,207,3.0,4.0,68,0.00,,,0.00,Wunderground v.1.15,2013-04-25 14:31:00,
2013-04-25 10:35:00,49.1,38.6,30.40,SSW,204,3.0,7.0,67,0.00,,,0.00,Wunderground v.1.15,2013-04-25 14:35:00,
2013-04-25 10:38:00,49.3,38.0,30.40,SE,133,3.0,7.0,65,0.00,,,0.00,Wunderground v.1.15,2013-04-25 14:38:00,
2013-04-25 10:39:00,49.4,38.5,30.40,South,184,3.0,7.0,66,0.00,,,0.00,Wunderground v.1.15,2013-04-25 14:39:00,
2013-04-25 10:43:00,49.6,38.3,30.40,South,173,4.0,7.0,65,0.00,,,0.00,Wunderground v.1.15,2013-04-25 14:43:00,
2013-04-25 10:45:00,49.7,38.0,30.40,SW,224,4.0,4.0,64,0.00,,,0.00,Wunderground v.1.15,2013-04-25 14:45:00,
2013-04-25 10:46:00,49.9,38.6,30.40,SW,235,4.0,4.0,65,0.00,,,0.00,Wunderground v.1.15,2013-04-25 14:46:00,
2013-04-25 10:48:00,50.1,38.8,30.40,WSW,241,4.0,4.0,65,0.00,,,0.00,Wunderground v.1.15,2013-04-25 14:48:00,
2013-04-25 10:50:00,50.3,38.6,30.41,SW,227,4.0,4.0,64,0.00,,,0.00,Wunderground v.1.15,2013-04-25 14:50:00,
2013-04-25 10:51:00,50.3,38.6,30.40,WSW,241,4.0,4.0,64,0.00,,,0.00,Wunderground v.1.15,2013-04-25 14:51:00,
2013-04-25 10:53:00,50.4,38.3,30.41,WNW,284,4.0,5.0,63,0.00,,,0.00,Wunderground v.1.15,2013-04-25 14:53:00,
2013-04-25 10:57:00,50.3,37.8,30.41,West,266,4.0,6.0,62,0.00,,,0.00,Wunderground v.1.15,2013-04-25 14:57:00,
2013-04-25 11:00:00,50.4,38.7,30.40,SSW,207,4.0,9.0,64,0.00,,,0.00,Wunderground v.1.15,2013-04-25 15:00:00,
2013-04-25 11:02:00,50.5,38.0,30.40,WNW,292,4.0,9.0,62,0.00,,,0.00,Wunderground v.1.15,2013-04-25 15:02:00,
2013-04-25 11:03:00,50.6,38.9,30.40,SSW,194,4.0,9.0,64,0.00,,,0.00,Wunderground v.1.15,2013-04-25 15:03:00,
2013-04-25 11:04:00,50.7,38.1,30.40,South,178,4.0,4.0,62,0.00,,,0.00,Wunderground v.1.15,2013-04-25 15:04:00,
2013-04-25 11:08:00,50.8,37.8,30.40,WSW,251,3.0,6.0,61,0.00,,,0.00,Wunderground v.1.15,2013-04-25 15:08:00,
2013-04-25 11:10:00,50.8,37.4,30.40,SSE,167,3.0,6.0,60,0.00,,,0.00,Wunderground v.1.15,2013-04-25 15:10:00,
2013-04-25 11:12:00,50.8,38.2,30.40,SW,234,3.0,6.0,62,0.00,,,0.00,Wunderground v.1.15,2013-04-25 15:12:00,
2013-04-25 11:15:00,50.8,37.8,30.40,SSW,200,4.0,5.0,61,0.00,,,0.00,Wunderground v.1.15,2013-04-25 15:15:00,
2013-04-25 11:16:00,51.0,38.4,30.40,South,188,4.0,5.0,62,0.00,,,0.00,Wunderground v.1.15,2013-04-25 15:16:00,
2013-04-25 11:19:00,51.3,39.1,30.40,SW,225,3.0,5.0,63,0.00,,,0.00,Wunderground v.1.15,2013-04-25 15:19:00,
2013-04-25 11:22:00,51.5,38.9,30.40,WNW,300,3.0,5.0,62,0.00,,,0.00,Wunderground v.1.15,2013-04-25 15:22:00,
2013-04-25 11:23:00,51.6,38.6,30.40,West,269,4.0,4.0,61,0.00,,,0.00,Wunderground v.1.15,2013-04-25 15:23:00,
2013-04-25 11:25:00,51.6,38.2,30.40,SW,233,4.0,4.0,60,0.00,,,0.00,Wunderground v.1.15,2013-04-25 15:25:00,
2013-04-25 11:27:00,51.7,38.7,30.40,WSW,244,4.0,5.0,61,0.00,,,0.00,Wunderground v.1.15,2013-04-25 15:27:00,
2013-04-25 11:28:00,51.8,38.8,30.40,SSW,201,4.0,5.0,61,0.00,,,0.00,Wunderground v.1.15,2013-04-25 15:28:00,
2013-04-25 11:29:00,51.9,38.9,30.40,SSE,155,4.0,5.0,61,0.00,,,0.00,Wunderground v.1.15,2013-04-25 15:29:00,
2013-04-25 11:32:00,52.2,39.1,30.40,SW,214,4.0,5.0,61,0.00,,,0.00,Wunderground v.1.15,2013-04-25 15:32:00,
2013-04-25 11:34:00,52.5,39.4,30.40,West,265,3.0,4.0,61,0.00,,,0.00,Wunderground v.1.15,2013-04-25 15:34:00,
2013-04-25 11:35:00,52.6,39.5,30.40,SW,230,3.0,4.0,61,0.00,,,0.00,Wunderground v.1.15,2013-04-25 15:35:00,
2013-04-25 11:36:00,52.7,40.0,30.40,SSW,208,3.0,4.0,62,0.00,,,0.00,Wunderground v.1.15,2013-04-25 15:36:00,
2013-04-25 11:39:00,53.1,39.6,30.40,SW,236,3.0,4.0,60,0.00,,,0.00,Wunderground v.1.15,2013-04-25 15:39:00,
2013-04-25 11:40:00,53.3,40.2,30.40,SSW,207,3.0,5.0,61,0.00,,,0.00,Wunderground v.1.15,2013-04-25 15:40:00,
2013-04-25 11:42:00,53.5,40.4,30.40,South,173,3.0,5.0,61,0.00,,,0.00,Wunderground v.1.15,2013-04-25 15:42:00,
2013-04-25 11:43:00,53.7,41.0,30.40,SSW,202,3.0,9.0,62,0.00,,,0.00,Wunderground v.1.15,2013-04-25 15:43:00,
2013-04-25 11:46:00,53.8,39.4,30.40,West,274,4.0,9.0,58,0.00,,,0.00,Wunderground v.1.15,2013-04-25 15:46:00,
2013-04-25 11:50:00,53.8,39.4,30.40,NW,321,4.0,9.0,58,0.00,,,0.00,Wunderground v.1.15,2013-04-25 15:50:00,
2013-04-25 11:53:00,53.8,38.9,30.40,WNW,300,4.0,9.0,57,0.00,,,0.00,Wunderground v.1.15,2013-04-25 15:53:00,
2013-04-25 11:54:00,53.7,38.4,30.40,West,263,4.0,6.0,56,0.00,,,0.00,Wunderground v.1.15,2013-04-25 15:54:00,
2013-04-25 11:56:00,53.8,39.4,30.40,WNW,297,4.0,6.0,58,0.00,,,0.00,Wunderground v.1.15,2013-04-25 15:56:00,
2013-04-25 11:59:00,53.8,38.9,30.40,SW,230,4.0,6.0,57,0.00,,,0.00,Wunderground v.1.15,2013-04-25 15:59:00,
2013-04-25 12:01:00,53.9,39.5,30.40,SSW,212,4.0,6.0,58,0.00,,,0.00,Wunderground v.1.15,2013-04-25 16:01:00,
2013-04-25 12:05:00,54.2,40.6,30.40,SSW,212,4.0,5.0,60,0.00,,,0.00,Wunderground v.1.15,2013-04-25 16:05:00,
2013-04-25 12:07:00,48.3,33.3,30.42,NNW,346,0.0,0.0,56,0.00,,,0.00,Wunderground v.1.15,2013-04-25 16:07:00,
2013-04-25 12:08:00,48.3,33.3,30.42,NNW,346,0.0,0.0,56,0.00,,,0.00,Wunderground v.1.15,2013-04-25 16:08:00,
2013-04-25 12:09:00,48.3,33.3,30.42,NNW,346,0.0,0.0,56,0.00,,,0.00,Wunderground v.1.15,2013-04-25 16:09:00,
2013-04-25 12:10:00,55.1,41.0,30.40,SW,225,3.0,5.0,59,0.00,,,0.00,Wunderground v.1.15,2013-04-25 16:10:00,
2013-04-25 12:11:00,48.2,33.2,30.42,NNW,346,0.0,0.0,56,0.00,,,0.00,Wunderground v.1.15,2013-04-25 16:11:00,
2013-04-25 12:12:00,48.1,33.1,30.42,NNW,346,0.0,0.0,56,0.00,,,0.00,Wunderground v.1.15,2013-04-25 16:12:00,
2013-04-25 12:13:00,55.4,40.4,30.40,West,281,3.0,8.0,57,0.00,,,0.00,Wunderground v.1.15,2013-04-25 16:13:00,
2013-04-25 12:14:00,48.1,33.6,30.42,NNW,346,0.0,0.0,57,0.00,,,0.00,Wunderground v.1.15,2013-04-25 16:14:00,
2013-04-25 12:15:00,48.0,33.5,30.42,NNW,346,0.0,0.0,57,0.00,,,0.00,Wunderground v.1.15,2013-04-25 16:15:00,
2013-04-25 12:16:00,55.0,37.7,30.40,West,259,3.0,8.0,52,0.00,,,0.00,Wunderground v.1.15,2013-04-25 16:16:00,
2013-04-25 12:17:00,54.9,37.6,30.40,WSW,253,3.0,8.0,52,0.00,,,0.00,Wunderground v.1.15,2013-04-25 16:17:00,
2013-04-25 12:18:00,47.9,33.8,30.43,NNW,346,0.0,0.0,58,0.00,,,0.00,Wunderground v.1.15,2013-04-25 16:18:00,
2013-04-25 12:19:00,55.1,39.7,30.40,SW,231,3.0,8.0,56,0.00,,,0.00,Wunderground v.1.15,2013-04-25 16:19:00,
2013-04-25 12:20:00,47.8,34.2,30.43,NNW,346,0.0,0.0,59,0.00,,,0.00,Wunderground v.1.15,2013-04-25 16:20:00,
2013-04-25 12:21:00,55.5,40.0,30.40,South,187,3.0,8.0,56,0.00,,,0.00,Wunderground v.1.15,2013-04-25 16:21:00,
2013-04-25 12:22:00,55.7,39.8,30.40,SSW,203,3.0,8.0,55,0.00,,,0.00,Wunderground v.1.15,2013-04-25 16:22:00,
2013-04-25 12:23:00,47.6,34.0,30.43,NNW,346,0.0,0.0,59,0.00,,,0.00,Wunderground v.1.15,2013-04-25 16:23:00,
2013-04-25 12:24:00,55.9,40.4,30.40,WSW,252,3.0,4.0,56,0.00,,,0.00,Wunderground v.1.15,2013-04-25 16:24:00,
2013-04-25 12:25:00,47.4,33.8,30.43,NNW,346,0.0,0.0,59,0.00,,,0.00,Wunderground v.1.15,2013-04-25 16:25:00,
2013-04-25 12:26:00,47.2,33.6,30.43,NNW,346,0.0,0.0,59,0.00,,,0.00,Wunderground v.1.15,2013-04-25 16:26:00,
2013-04-25 12:27:00,56.1,38.7,30.40,West,270,3.0,6.0,52,0.00,,,0.00,Wunderground v.1.15,2013-04-25 16:27:00,
2013-04-25 12:28:00,47.0,33.8,30.43,NNW,346,0.0,0.0,60,0.00,,,0.00,Wunderground v.1.15,2013-04-25 16:28:00,
2013-04-25 12:29:00,55.8,37.9,30.40,WSW,246,4.0,6.0,51,0.00,,,0.00,Wunderground v.1.15,2013-04-25 16:29:00,
2013-04-25 12:30:00,46.8,34.5,30.43,NNW,346,0.0,0.0,62,0.00,,,0.00,Wunderground v.1.15,2013-04-25 16:30:00,
2013-04-25 12:31:00,55.8,38.4,30.40,WNW,285,4.0,6.0,52,0.00,,,0.00,Wunderground v.1.15,2013-04-25 16:31:00,
2013-04-25 12:32:00,46.6,33.9,30.43,NNW,346,0.0,0.0,61,0.00,,,0.00,Wunderground v.1.15,2013-04-25 16:32:00,
2013-04-25 12:33:00,55.9,38.5,30.40,SW,236,4.0,6.0,52,0.00,,,0.00,Wunderground v.1.15,2013-04-25 16:33:00,
2013-04-25 12:34:00,46.4,33.7,30.43,NNW,346,0.0,0.0,61,0.00,,,0.00,Wunderground v.1.15,2013-04-25 16:34:00,
2013-04-25 12:35:00,55.9,39.0,30.40,SSW,207,4.0,4.0,53,0.00,,,0.00,Wunderground v.1.15,2013-04-25 16:35:00,
2013-04-25 12:36:00,56.1,39.2,30.40,SW,234,4.0,5.0,53,0.00,,,0.00,Wunderground v.1.15,2013-04-25 16:36:00,
2013-04-25 12:37:00,46.2,33.5,30.43,NNW,346,0.0,0.0,61,0.00,,,0.00,Wunderground v.1.15,2013-04-25 16:37:00,
2013-04-25 12:38:00,56.2,38.8,30.40,SSW,200,4.0,6.0,52,0.00,,,0.00,Wunderground v.1.15,2013-04-25 16:38:00,
2013-04-25 12:39:00,56.3,38.9,30.40,West,276,4.0,6.0,52,0.00,,,0.00,Wunderground v.1.15,2013-04-25 16:39:00,
2013-04-25 12:40:00,46.1,33.8,30.42,NNW,346,0.0,0.0,62,0.00,,,0.00,Wunderground v.1.15,2013-04-25 16:40:00,
2013-04-25 12:41:00,56.3,38.9,30.40,SW,231,5.0,8.0,52,0.00,,,0.00,Wunderground v.1.15,2013-04-25 16:41:00,
2013-04-25 12:42:00,46.0,33.7,30.42,NNW,346,0.0,0.0,62,0.00,,,0.00,Wunderground v.1.15,2013-04-25 16:42:00,
2013-04-25 12:43:00,56.1,38.7,30.39,SW,228,5.0,5.0,52,0.00,,,0.00,Wunderground v.1.15,2013-04-25 16:43:00,
2013-04-25 12:44:00,45.9,34.0,30.42,NNW,346,0.0,0.0,63,0.00,,,0.00,Wunderground v.1.15,2013-04-25 16:44:00,
2013-04-25 12:45:00,56.2,40.2,30.39,WNW,290,5.0,5.0,55,0.00,,,0.00,Wunderground v.1.15,2013-04-25 16:45:00,
2013-04-25 12:46:00,56.4,40.4,30.39,South,190,5.0,5.0,55,0.00,,,0.00,Wunderground v.1.15,2013-04-25 16:46:00,
2013-04-25 12:47:00,45.8,33.9,30.42,NNW,346,0.0,1.0,63,0.00,,,0.00,Wunderground v.1.15,2013-04-25 16:47:00,
2013-04-25 12:48:00,56.9,40.4,30.39,West,261,4.0,5.0,54,0.00,,,0.00,Wunderground v.1.15,2013-04-25 16:48:00,
2013-04-25 12:49:00,45.6,33.7,30.42,NNW,346,0.0,1.0,63,0.00,,,0.00,Wunderground v.1.15,2013-04-25 16:49:00,
2013-04-25 12:50:00,45.6,33.7,30.42,NNW,346,0.0,0.0,63,0.00,,,0.00,Wunderground v.1.15,2013-04-25 16:50:00,
2013-04-25 12:51:00,57.2,40.2,30.39,WSW,254,4.0,7.0,53,0.00,,,0.00,Wunderground v.1.15,2013-04-25 16:51:00,
2013-04-25 12:52:00,45.6,34.1,30.42,NNW,346,0.0,0.0,64,0.00,,,0.00,Wunderground v.1.15,2013-04-25 16:52:00,
2013-04-25 12:53:00,57.4,39.9,30.39,WNW,288,4.0,7.0,52,0.00,,,0.00,Wunderground v.1.15,2013-04-25 16:53:00,
2013-04-25 12:54:00,45.6,34.1,30.42,NNW,346,0.0,0.0,64,0.00,,,0.00,Wunderground v.1.15,2013-04-25 16:54:00,
2013-04-25 12:55:00,57.4,38.9,30.39,WSW,246,4.0,4.0,50,0.00,,,0.00,Wunderground v.1.15,2013-04-25 16:55:00,
2013-04-25 12:56:00,45.5,34.4,30.42,NNW,346,0.0,0.0,65,0.00,,,0.00,Wunderground v.1.15,2013-04-25 16:56:00,
2013-04-25 12:57:00,45.4,34.3,30.43,NNW,346,0.0,0.0,65,0.00,,,0.00,Wunderground v.1.15,2013-04-25 16:57:00,
2013-04-25 12:58:00,57.7,38.7,30.39,WSW,252,4.0,11.0,49,0.00,,,0.00,Wunderground v.1.15,2013-04-25 16:58:00,
2013-04-25 12:59:00,45.3,34.2,30.43,NNW,346,0.0,1.0,65,0.00,,,0.00,Wunderground v.1.15,2013-04-25 16:59:00,
2013-04-25 13:00:00,45.2,34.5,30.43,NNW,346,0.0,0.0,66,0.00,,,0.00,Wunderground v.1.15,2013-04-25 17:00:00,
2013-04-25 13:01:00,45.1,34.8,30.43,NNW,346,0.0,0.0,67,0.00,,,0.00,Wunderground v.1.15,2013-04-25 17:01:00,
2013-04-25 13:02:00,57.7,38.1,30.39,WNW,297,4.0,11.0,48,0.00,,,0.00,Wunderground v.1.15,2013-04-25 17:02:00,
2013-04-25 13:03:00,45.0,34.3,30.43,NNW,346,0.0,1.0,66,0.00,,,0.00,Wunderground v.1.15,2013-04-25 17:03:00,
2013-04-25 13:04:00,44.9,34.2,30.43,NNW,346,0.0,1.0,66,0.00,,,0.00,Wunderground v.1.15,2013-04-25 17:04:00,
2013-04-25 13:05:00,44.9,33.8,30.43,NNW,346,0.0,1.0,65,0.00,,,0.00,Wunderground v.1.15,2013-04-25 17:05:00,
2013-04-25 13:06:00,44.8,33.7,30.43,NNW,346,0.0,1.0,65,0.00,,,0.00,Wunderground v.1.15,2013-04-25 17:06:00,
2013-04-25 13:07:00,56.9,35.2,30.39,WNW,296,5.0,10.0,44,0.00,,,0.00,Wunderground v.1.15,2013-04-25 17:07:00,
2013-04-25 13:08:00,44.8,33.7,30.43,NNW,346,0.0,1.0,65,0.00,,,0.00,Wunderground v.1.15,2013-04-25 17:08:00,
2013-04-25 13:09:00,56.7,36.1,30.39,West,259,5.0,10.0,46,0.00,,,0.00,Wunderground v.1.15,2013-04-25 17:09:00,
2013-04-25 13:10:00,44.7,34.0,30.43,NNW,346,0.0,0.0,66,0.00,,,0.00,Wunderground v.1.15,2013-04-25 17:10:00,
2013-04-25 13:11:00,44.7,34.0,30.43,NNW,346,0.0,0.0,66,0.00,,,0.00,Wunderground v.1.15,2013-04-25 17:11:00,
2013-04-25 13:12:00,44.6,34.3,30.43,NNW,346,0.0,0.0,67,0.00,,,0.00,Wunderground v.1.15,2013-04-25 17:12:00,
2013-04-25 13:13:00,44.6,34.3,30.43,NNW,346,0.0,0.0,67,0.00,,,0.00,Wunderground v.1.15,2013-04-25 17:13:00,
2013-04-25 13:14:00,57.4,37.9,30.39,SSW,194,5.0,8.0,48,0.00,,,0.00,Wunderground v.1.15,2013-04-25 17:14:00,
2013-04-25 13:15:00,57.5,38.5,30.39,WSW,245,6.0,8.0,49,0.00,,,0.00,Wunderground v.1.15,2013-04-25 17:15:00,
2013-04-25 13:16:00,57.6,37.0,30.39,WSW,237,5.0,8.0,46,0.00,,,0.00,Wunderground v.1.15,2013-04-25 17:16:00,
2013-04-25 13:17:00,44.3,34.4,30.43,NNW,346,0.0,0.0,68,0.00,,,0.00,Wunderground v.1.15,2013-04-25 17:17:00,
2013-04-25 13:18:00,44.2,34.7,30.43,NNW,346,0.0,0.0,69,0.00,,,0.00,Wunderground v.1.15,2013-04-25 17:18:00,
2013-04-25 13:19:00,57.4,36.2,30.38,WNW,298,5.0,8.0,45,0.00,,,0.00,Wunderground v.1.15,2013-04-25 17:19:00,
2013-04-25 13:20:00,44.1,34.9,30.43,NNW,346,0.0,0.0,70,0.00,,,0.00,Wunderground v.1.15,2013-04-25 17:20:00,
2013-04-25 13:21:00,57.5,36.9,30.38,West,262,5.0,8.0,46,0.00,,,0.00,Wunderground v.1.15,2013-04-25 17:21:00,
2013-04-25 13:22:00,44.0,34.8,30.43,NNW,346,0.0,0.0,70,0.00,,,0.00,Wunderground v.1.15,2013-04-25 17:22:00,
2013-04-25 13:23:00,57.5,36.3,30.38,SSW,198,5.0,8.0,45,0.00,,,0.00,Wunderground v.1.15,2013-04-25 17:23:00,
2013-04-25 13:24:00,43.8,33.9,30.43,NNW,346,0.0,0.0,68,0.00,,,0.00,Wunderground v.1.15,2013-04-25 17:24:00,
2013-04-25 13:25:00,43.8,33.9,30.43,NNW,346,0.0,0.0,68,0.00,,,0.00,Wunderground v.1.15,2013-04-25 17:25:00,
2013-04-25 13:26:00,43.8,33.6,30.43,NNW,346,0.0,0.0,67,0.00,,,0.00,Wunderground v.1.15,2013-04-25 17:26:00,
2013-04-25 13:27:00,58.1,38.5,30.38,West,262,3.0,5.0,48,0.00,,,0.00,Wunderground v.1.15,2013-04-25 17:27:00,
2013-04-25 13:28:00,58.3,38.7,30.38,West,259,3.0,5.0,48,0.00,,,0.00,Wunderground v.1.15,2013-04-25 17:28:00,
2013-04-25 13:29:00,43.8,33.2,30.43,NNW,346,0.0,0.0,66,0.00,,,0.00,Wunderground v.1.15,2013-04-25 17:29:00,
2013-04-25 13:30:00,43.8,33.6,30.43,NNW,346,0.0,0.0,67,0.00,,,0.00,Wunderground v.1.15,2013-04-25 17:30:00,
2013-04-25 13:31:00,43.9,33.3,30.43,NNW,346,0.0,0.0,66,0.00,,,0.00,Wunderground v.1.15,2013-04-25 17:31:00,
2013-04-25 13:32:00,59.1,39.9,30.38,NW,321,3.0,5.0,49,0.00,,,0.00,Wunderground v.1.15,2013-04-25 17:32:00,
2013-04-25 13:33:00,43.9,33.3,30.43,NNW,346,0.0,0.0,66,0.00,,,0.00,Wunderground v.1.15,2013-04-25 17:33:00,
2013-04-25 13:34:00,59.3,39.1,30.38,WSW,242,3.0,3.0,47,0.00,,,0.00,Wunderground v.1.15,2013-04-25 17:34:00,
2013-04-25 13:35:00,44.0,33.4,30.43,NNW,346,0.0,0.0,66,0.00,,,0.00,Wunderground v.1.15,2013-04-25 17:35:00,
2013-04-25 13:37:00,59.3,37.4,30.38,WSW,241,4.0,6.0,44,0.00,,,0.00,Wunderground v.1.15,2013-04-25 17:37:00,
2013-04-25 13:38:00,44.1,33.8,30.43,NNW,346,0.0,0.0,67,0.00,,,0.00,Wunderground v.1.15,2013-04-25 17:38:00,
2013-04-25 13:39:00,44.2,33.6,30.43,NNW,346,0.0,0.0,66,0.00,,,0.00,Wunderground v.1.15,2013-04-25 17:39:00,
2013-04-25 13:40:00,59.0,37.1,30.38,West,261,4.0,8.0,44,0.00,,,0.00,Wunderground v.1.15,2013-04-25 17:40:00,
2013-04-25 13:41:00,44.2,33.6,30.43,NNW,346,0.0,0.0,66,0.00,,,0.00,Wunderground v.1.15,2013-04-25 17:41:00,
2013-04-25 13:42:00,59.0,37.7,30.38,NW,305,4.0,8.0,45,0.00,,,0.00,Wunderground v.1.15,2013-04-25 17:42:00,
2013-04-25 13:43:00,44.3,34.0,30.43,NNW,346,0.0,0.0,67,0.00,,,0.00,Wunderground v.1.15,2013-04-25 17:43:00,
2013-04-25 13:44:00,59.0,38.8,30.38,WSW,250,4.0,4.0,47,0.00,,,0.00,Wunderground v.1.15,2013-04-25 17:44:00,
2013-04-25 13:45:00,58.9,37.6,30.38,West,269,4.0,6.0,45,0.00,,,0.00,Wunderground v.1.15,2013-04-25 17:45:00,
2013-04-25 13:46:00,58.9,37.6,30.38,West,267,4.0,6.0,45,0.00,,,0.00,Wunderground v.1.15,2013-04-25 17:46:00,
2013-04-25 13:47:00,44.3,34.0,30.43,NNW,346,0.0,0.0,67,0.00,,,0.00,Wunderground v.1.15,2013-04-25 17:47:00,
2013-04-25 13:48:00,58.8,37.5,30.38,NW,317,4.0,9.0,45,0.00,,,0.00,Wunderground v.1.15,2013-04-25 17:48:00,
2013-04-25 13:49:00,58.7,37.4,30.38,NW,318,5.0,9.0,45,0.00,,,0.00,Wunderground v.1.15,2013-04-25 17:49:00,
2013-04-25 13:52:00,44.2,33.6,30.43,NNW,346,0.0,0.0,66,0.00,,,0.00,Wunderground v.1.15,2013-04-25 17:52:00,
2013-04-25 13:54:00,58.6,37.9,30.37,West,268,5.0,5.0,46,0.00,,,0.00,Wunderground v.1.15,2013-04-25 17:54:00,
2013-04-25 13:56:00,58.7,39.0,30.37,SW,225,5.0,5.0,48,0.00,,,0.00,Wunderground v.1.15,2013-04-25 17:56:00,
2013-04-25 13:58:00,44.2,33.2,30.43,NNW,346,0.0,0.0,65,0.00,,,0.00,Wunderground v.1.15,2013-04-25 17:58:00,
2013-04-25 13:59:00,59.4,39.1,30.37,WNW,299,4.0,5.0,47,0.00,,,0.00,Wunderground v.1.15,2013-04-25 17:59:00,
2013-04-25 14:00:00,59.9,39.1,30.37,West,269,4.0,5.0,46,0.00,,,0.00,Wunderground v.1.15,2013-04-25 18:00:00,
2013-04-25 14:01:00,44.2,33.2,30.43,NNW,346,0.0,0.0,65,0.00,,,0.00,Wunderground v.1.15,2013-04-25 18:01:00,
2013-04-25 14:02:00,60.1,38.7,30.37,West,281,4.0,5.0,45,0.00,,,0.00,Wunderground v.1.15,2013-04-25 18:02:00,
2013-04-25 14:05:00,59.9,37.9,30.37,NW,304,3.0,4.0,44,0.00,,,0.00,Wunderground v.1.15,2013-04-25 18:05:00,
2013-04-25 14:07:00,59.7,37.7,30.37,WSW,251,3.0,6.0,44,0.00,,,0.00,Wunderground v.1.15,2013-04-25 18:07:00,
2013-04-25 14:08:00,59.8,39.0,30.37,WNW,303,3.0,6.0,46,0.00,,,0.00,Wunderground v.1.15,2013-04-25 18:08:00,
2013-04-25 14:09:00,44.2,33.6,30.43,NNW,346,0.0,0.0,66,0.00,,,0.00,Wunderground v.1.15,2013-04-25 18:09:00,
2013-04-25 14:10:00,60.2,39.9,30.37,West,268,3.0,8.0,47,0.00,,,0.00,Wunderground v.1.15,2013-04-25 18:10:00,
2013-04-25 14:13:00,60.3,38.9,30.37,West,267,4.0,4.0,45,0.00,,,0.00,Wunderground v.1.15,2013-04-25 18:13:00,
2013-04-25 14:16:00,60.3,37.7,30.37,West,266,4.0,4.0,43,0.00,,,0.00,Wunderground v.1.15,2013-04-25 18:16:00,
2013-04-25 14:19:00,60.2,39.3,30.37,SW,219,4.0,9.0,46,0.00,,,0.00,Wunderground v.1.15,2013-04-25 18:19:00,
2013-04-25 14:21:00,60.2,37.6,30.37,West,260,4.0,9.0,43,0.00,,,0.00,Wunderground v.1.15,2013-04-25 18:21:00,
2013-04-25 14:23:00,59.9,37.3,30.38,West,259,5.0,9.0,43,0.00,,,0.00,Wunderground v.1.15,2013-04-25 18:23:00,
2013-04-25 14:24:00,59.7,38.3,30.37,WSW,257,5.0,5.0,45,0.00,,,0.00,Wunderground v.1.15,2013-04-25 18:24:00,
2013-04-25 14:28:00,59.8,39.0,30.37,WSW,246,4.0,6.0,46,0.00,,,0.00,Wunderground v.1.15,2013-04-25 18:28:00,
2013-04-25 14:32:00,60.6,39.1,30.37,NW,304,4.0,6.0,45,0.00,,,0.00,Wunderground v.1.15,2013-04-25 18:32:00,
2013-04-25 14:34:00,60.8,40.4,30.37,WNW,285,3.0,3.0,47,0.00,,,0.00,Wunderground v.1.15,2013-04-25 18:34:00,
2013-04-25 14:38:00,61.1,40.7,30.37,SSW,209,4.0,8.0,47,0.00,,,0.00,Wunderground v.1.15,2013-04-25 18:38:00,
2013-04-25 14:39:00,61.3,40.9,30.37,WSW,238,4.0,8.0,47,0.00,,,0.00,Wunderground v.1.15,2013-04-25 18:39:00,
2013-04-25 14:41:00,61.7,38.4,30.37,South,187,4.0,8.0,42,0.00,,,0.00,Wunderground v.1.15,2013-04-25 18:41:00,
2013-04-25 14:44:00,61.4,39.3,30.37,WSW,243,4.0,6.0,44,0.00,,,0.00,Wunderground v.1.15,2013-04-25 18:44:00,
2013-04-25 14:46:00,61.1,38.4,30.37,WNW,299,4.0,7.0,43,0.00,,,0.00,Wunderground v.1.15,2013-04-25 18:46:00,
2013-04-25 14:47:00,61.1,40.1,30.37,SW,219,4.0,7.0,46,0.00,,,0.00,Wunderground v.1.15,2013-04-25 18:47:00,
2013-04-25 14:49:00,61.0,38.3,30.37,SW,228,5.0,7.0,43,0.00,,,0.00,Wunderground v.1.15,2013-04-25 18:49:00,
2013-04-25 14:53:00,59.7,37.7,30.37,WSW,248,5.0,7.0,44,0.00,,,0.00,Wunderground v.1.15,2013-04-25 18:53:00,
2013-04-25 14:57:00,60.0,39.7,30.37,West,274,5.0,5.0,47,0.00,,,0.00,Wunderground v.1.15,2013-04-25 18:57:00,
2013-04-25 14:58:00,60.3,39.4,30.37,SW,234,5.0,5.0,46,0.00,,,0.00,Wunderground v.1.15,2013-04-25 18:58:00,
2013-04-25 14:59:00,60.3,38.3,30.37,SW,221,5.0,5.0,44,0.00,,,0.00,Wunderground v.1.15,2013-04-25 18:59:00,
2013-04-25 15:03:00,60.4,38.9,30.37,West,275,4.0,4.0,45,0.00,,,0.00,Wunderground v.1.15,2013-04-25 19:03:00,
2013-04-25 15:05:00,60.4,38.9,30.37,WNW,296,4.0,4.0,45,0.00,,,0.00,Wunderground v.1.15,2013-04-25 19:05:00,
2013-04-25 15:06:00,60.4,39.5,30.37,WNW,295,4.0,4.0,46,0.00,,,0.00,Wunderground v.1.15,2013-04-25 19:06:00,
2013-04-25 15:11:00,61.1,39.0,30.36,SSW,198,4.0,6.0,44,0.00,,,0.00,Wunderground v.1.15,2013-04-25 19:11:00,
2013-04-25 15:13:00,61.7,39.6,30.36,WSW,241,4.0,6.0,44,0.00,,,0.00,Wunderground v.1.15,2013-04-25 19:13:00,
2013-04-25 15:17:00,62.0,40.4,30.36,West,275,4.0,7.0,45,0.00,,,0.00,Wunderground v.1.15,2013-04-25 19:17:00,
2013-04-25 15:18:00,62.0,41.0,30.36,WNW,282,4.0,7.0,46,0.00,,,0.00,Wunderground v.1.15,2013-04-25 19:18:00,
2013-04-25 15:20:00,61.8,39.1,30.36,NW,317,4.0,7.0,43,0.00,,,0.00,Wunderground v.1.15,2013-04-25 19:20:00,
2013-04-25 15:21:00,61.6,38.3,30.36,WSW,241,5.0,7.0,42,0.00,,,0.00,Wunderground v.1.15,2013-04-25 19:21:00,
2013-04-25 15:22:00,61.2,38.5,30.36,West,259,5.0,7.0,43,0.00,,,0.00,Wunderground v.1.15,2013-04-25 19:22:00,
2013-04-25 15:25:00,61.2,39.1,30.36,West,269,4.0,5.0,44,0.00,,,0.00,Wunderground v.1.15,2013-04-25 19:25:00,
2013-04-25 15:27:00,61.2,39.7,30.36,SW,223,4.0,5.0,45,0.00,,,0.00,Wunderground v.1.15,2013-04-25 19:27:00,
2013-04-25 15:29:00,61.1,38.4,30.36,SW,227,4.0,5.0,43,0.00,,,0.00,Wunderground v.1.15,2013-04-25 19:29:00,
2013-04-25 15:34:00,61.0,40.1,30.36,WNW,288,4.0,4.0,46,0.00,,,0.00,Wunderground v.1.15,2013-04-25 19:34:00,
2013-04-25 15:35:00,61.3,40.3,30.36,WNW,283,4.0,4.0,46,0.00,,,0.00,Wunderground v.1.15,2013-04-25 19:35:00,
2013-04-25 15:36:00,61.6,40.0,30.36,WNW,302,4.0,7.0,45,0.00,,,0.00,Wunderground v.1.15,2013-04-25 19:36:00,
2013-04-25 15:37:00,61.6,38.9,30.36,WNW,296,4.0,10.0,43,0.00,,,0.00,Wunderground v.1.15,2013-04-25 19:37:00,
2013-04-25 15:42:00,60.2,37.6,30.36,SW,230,5.0,10.0,43,0.00,,,0.00,Wunderground v.1.15,2013-04-25 19:42:00,
2013-04-25 15:44:00,59.9,38.5,30.36,WNW,300,4.0,4.0,45,0.00,,,0.00,Wunderground v.1.15,2013-04-25 19:44:00,
2013-04-25 15:45:00,59.8,37.8,30.36,WNW,293,4.0,4.0,44,0.00,,,0.00,Wunderground v.1.15,2013-04-25 19:45:00,
2013-04-25 15:47:00,59.9,37.3,30.36,West,269,4.0,7.0,43,0.00,,,0.00,Wunderground v.1.15,2013-04-25 19:47:00,
2013-04-25 15:49:00,60.2,38.8,30.36,WSW,240,4.0,7.0,45,0.00,,,0.00,Wunderground v.1.15,2013-04-25 19:49:00,
2013-04-25 15:51:00,60.5,38.5,30.36,WNW,288,4.0,7.0,44,0.00,,,0.00,Wunderground v.1.15,2013-04-25 19:51:00,
2013-04-25 15:54:00,60.8,37.5,30.36,WSW,257,4.0,4.0,42,0.00,,,0.00,Wunderground v.1.15,2013-04-25 19:54:00,
2013-04-25 15:55:00,60.4,38.4,30.36,NW,307,5.0,5.0,44,0.00,,,0.00,Wunderground v.1.15,2013-04-25 19:55:00,
2013-04-25 15:57:00,60.2,38.8,30.36,WNW,290,5.0,6.0,45,0.00,,,0.00,Wunderground v.1.15,2013-04-25 19:57:00,
2013-04-25 15:58:00,59.9,37.3,30.36,WSW,246,5.0,6.0,43,0.00,,,0.00,Wunderground v.1.15,2013-04-25 19:58:00,
2013-04-25 16:00:00,60.1,38.1,30.36,SSW,206,4.0,6.0,44,0.00,,,0.00,Wunderground v.1.15,2013-04-25 20:00:00,
2013-04-25 16:02:00,60.4,39.5,30.35,SW,222,4.0,6.0,46,0.00,,,0.00,Wunderground v.1.15,2013-04-25 20:02:00,
2013-04-25 16:04:00,60.7,38.6,30.35,WNW,298,4.0,4.0,44,0.00,,,0.00,Wunderground v.1.15,2013-04-25 20:04:00,
2013-04-25 16:07:00,60.9,39.4,30.35,WNW,288,3.0,5.0,45,0.00,,,0.00,Wunderground v.1.15,2013-04-25 20:07:00,
2013-04-25 16:11:00,60.4,37.8,30.35,NW,315,4.0,8.0,43,0.00,,,0.00,Wunderground v.1.15,2013-04-25 20:11:00,
2013-04-25 16:12:00,60.2,37.6,30.35,NW,305,4.0,8.0,43,0.00,,,0.00,Wunderground v.1.15,2013-04-25 20:12:00,
2013-04-25 16:14:00,59.8,37.8,30.35,WNW,300,4.0,6.0,44,0.00,,,0.00,Wunderground v.1.15,2013-04-25 20:14:00,
2013-04-25 16:17:00,59.7,37.7,30.35,West,274,4.0,6.0,44,0.00,,,0.00,Wunderground v.1.15,2013-04-25 20:17:00,
2013-04-25 16:19:00,60.0,38.6,30.35,NW,306,4.0,8.0,45,0.00,,,0.00,Wunderground v.1.15,2013-04-25 20:19:00,
2013-04-25 16:20:00,60.0,38.0,30.35,West,274,4.0,8.0,44,0.00,,,0.00,Wunderground v.1.15,2013-04-25 20:20:00,
2013-04-25 16:23:00,59.8,37.2,30.35,SW,227,4.0,4.0,43,0.00,,,0.00,Wunderground v.1.15,2013-04-25 20:23:00,
2013-04-25 16:26:00,59.6,37.6,30.35,WNW,292,4.0,5.0,44,0.00,,,0.00,Wunderground v.1.15,2013-04-25 20:26:00,
2013-04-25 16:27:00,59.6,37.1,30.35,WSW,250,4.0,6.0,43,0.00,,,0.00,Wunderground v.1.15,2013-04-25 20:27:00,
2013-04-25 16:30:00,59.6,37.1,30.35,WSW,252,5.0,6.0,43,0.00,,,0.00,Wunderground v.1.15,2013-04-25 20:30:00,
2013-04-25 16:31:00,60.1,38.7,30.35,WSW,252,4.0,7.0,45,0.00,,,0.00,Wunderground v.1.15,2013-04-25 20:31:00,
2013-04-25 16:35:00,61.6,38.3,30.35,West,281,5.0,12.0,42,0.00,,,0.00,Wunderground v.1.15,2013-04-25 20:35:00,
2013-04-25 16:36:00,61.5,37.6,30.35,WNW,302,5.0,12.0,41,0.00,,,0.00,Wunderground v.1.15,2013-04-25 20:36:00,
2013-04-25 16:37:00,61.4,38.1,30.35,WSW,245,5.0,12.0,42,0.00,,,0.00,Wunderground v.1.15,2013-04-25 20:37:00,
2013-04-25 16:42:00,61.5,38.2,30.35,West,267,6.0,12.0,42,0.00,,,0.00,Wunderground v.1.15,2013-04-25 20:42:00,
2013-04-25 16:44:00,62.0,39.2,30.35,West,271,6.0,6.0,43,0.00,,,0.00,Wunderground v.1.15,2013-04-25 20:44:00,
2013-04-25 16:46:00,62.3,39.5,30.35,West,279,5.0,6.0,43,0.00,,,0.00,Wunderground v.1.15,2013-04-25 20:46:00,
2013-04-25 16:51:00,62.7,38.6,30.35,NW,313,5.0,9.0,41,0.00,,,0.00,Wunderground v.1.15,2013-04-25 20:51:00,
2013-04-25 16:53:00,62.3,38.3,30.35,WNW,293,5.0,5.0,41,0.00,,,0.00,Wunderground v.1.15,2013-04-25 20:53:00,
2013-04-25 16:54:00,62.3,38.3,30.35,SSW,202,5.0,7.0,41,0.00,,,0.00,Wunderground v.1.15,2013-04-25 20:54:00,
2013-04-25 16:56:00,62.1,38.1,30.34,NW,309,5.0,7.0,41,0.00,,,0.00,Wunderground v.1.15,2013-04-25 20:56:00,
2013-04-25 17:01:00,61.1,37.2,30.35,NW,325,5.0,7.0,41,0.00,,,0.00,Wunderground v.1.15,2013-04-25 21:01:00,
2013-04-25 17:03:00,60.8,36.9,30.35,WNW,295,5.0,7.0,41,0.00,,,0.00,Wunderground v.1.15,2013-04-25 21:03:00,
2013-04-25 17:04:00,60.4,37.8,30.35,WNW,283,5.0,5.0,43,0.00,,,0.00,Wunderground v.1.15,2013-04-25 21:04:00,
2013-04-25 17:08:00,60.1,37.5,30.35,WNW,284,4.0,5.0,43,0.00,,,0.00,Wunderground v.1.15,2013-04-25 21:08:00,
2013-04-25 17:11:00,60.0,38.0,30.35,NW,304,3.0,5.0,44,0.00,,,0.00,Wunderground v.1.15,2013-04-25 21:11:00,
2013-04-25 17:12:00,60.1,38.1,30.35,WSW,255,3.0,5.0,44,0.00,,,0.00,Wunderground v.1.15,2013-04-25 21:12:00,
2013-04-25 17:13:00,60.0,38.0,30.35,WNW,298,3.0,8.0,44,0.00,,,0.00,Wunderground v.1.15,2013-04-25 21:13:00,
2013-04-25 17:14:00,59.9,36.7,30.35,NW,304,3.0,8.0,42,0.00,,,0.00,Wunderground v.1.15,2013-04-25 21:14:00,
2013-04-25 17:18:00,59.6,38.2,30.35,West,265,4.0,8.0,45,0.00,,,0.00,Wunderground v.1.15,2013-04-25 21:18:00,
2013-04-25 17:20:00,59.9,37.9,30.35,WSW,248,4.0,8.0,44,0.00,,,0.00,Wunderground v.1.15,2013-04-25 21:20:00,
2013-04-25 17:21:00,60.2,38.8,30.35,WSW,238,4.0,8.0,45,0.00,,,0.00,Wunderground v.1.15,2013-04-25 21:21:00,
2013-04-25 17:23:00,60.7,38.1,30.35,NW,324,4.0,4.0,43,0.00,,,0.00,Wunderground v.1.15,2013-04-25 21:23:00,
2013-04-25 17:26:00,61.1,38.4,30.35,West,267,4.0,7.0,43,0.00,,,0.00,Wunderground v.1.15,2013-04-25 21:26:00,
2013-04-25 17:27:00,61.2,37.9,30.35,West,281,4.0,7.0,42,0.00,,,0.00,Wunderground v.1.15,2013-04-25 21:27:00,
2013-04-25 17:30:00,61.0,37.7,30.35,West,265,5.0,7.0,42,0.00,,,0.00,Wunderground v.1.15,2013-04-25 21:30:00,
2013-04-25 17:32:00,61.1,37.8,30.35,WNW,299,5.0,7.0,42,0.00,,,0.00,Wunderground v.1.15,2013-04-25 21:32:00,
2013-04-25 17:34:00,61.0,38.3,30.35,WNW,298,5.0,10.0,43,0.00,,,0.00,Wunderground v.1.15,2013-04-25 21:34:00,
2013-04-25 17:37:00,60.6,38.0,30.35,NW,311,5.0,10.0,43,0.00,,,0.00,Wunderground v.1.15,2013-04-25 21:37:00,
2013-04-25 17:41:00,60.3,37.7,30.35,NW,310,4.0,10.0,43,0.00,,,0.00,Wunderground v.1.15,2013-04-25 21:41:00,
2013-04-25 17:42:00,60.2,37.6,30.35,WNW,300,3.0,10.0,43,0.00,,,0.00,Wunderground v.1.15,2013-04-25 21:42:00,
2013-04-25 17:44:00,60.4,38.9,30.35,West,277,3.0,4.0,45,0.00,,,0.00,Wunderground v.1.15,2013-04-25 21:44:00,
2013-04-25 17:48:00,61.1,38.4,30.35,WSW,255,3.0,6.0,43,0.00,,,0.00,Wunderground v.1.15,2013-04-25 21:48:00,
2013-04-25 17:51:00,61.4,38.1,30.35,WNW,298,3.0,6.0,42,0.00,,,0.00,Wunderground v.1.15,2013-04-25 21:51:00,
2013-04-25 17:54:00,61.5,38.2,30.35,NW,317,3.0,3.0,42,0.00,,,0.00,Wunderground v.1.15,2013-04-25 21:54:00,
2013-04-25 17:55:00,61.4,38.1,30.35,NNW,330,3.0,5.0,42,0.00,,,0.00,Wunderground v.1.15,2013-04-25 21:55:00,
2013-04-25 17:58:00,61.2,39.1,30.36,West,267,3.0,7.0,44,0.00,,,0.00,Wunderground v.1.15,2013-04-25 21:58:00,
2013-04-25 17:59:00,61.1,38.4,30.35,West,269,3.0,7.0,43,0.00,,,0.00,Wunderground v.1.15,2013-04-25 21:59:00,
2013-04-25 18:00:00,61.1,38.4,30.35,WNW,285,3.0,7.0,43,0.00,,,0.00,Wunderground v.1.15,2013-04-25 22:00:00,
2013-04-25 18:05:00,60.6,36.8,30.36,NNW,329,4.0,5.0,41,0.00,,,0.00,Wunderground v.1.15,2013-04-25 22:05:00,
2013-04-25 18:06:00,60.3,37.1,30.36,WNW,300,4.0,5.0,42,0.00,,,0.00,Wunderground v.1.15,2013-04-25 22:06:00,
2013-04-25 18:10:00,60.1,37.5,30.36,NNW,334,4.0,5.0,43,0.00,,,0.00,Wunderground v.1.15,2013-04-25 22:10:00,
2013-04-25 18:12:00,60.1,37.5,30.36,NNW,330,4.0,5.0,43,0.00,,,0.00,Wunderground v.1.15,2013-04-25 22:12:00,
2013-04-25 18:14:00,60.1,38.1,30.36,NW,304,4.0,4.0,44,0.00,,,0.00,Wunderground v.1.15,2013-04-25 22:14:00,
2013-04-25 18:17:00,60.1,37.5,30.36,NNW,344,4.0,5.0,43,0.00,,,0.00,Wunderground v.1.15,2013-04-25 22:17:00,
2013-04-25 18:18:00,60.2,37.6,30.36,WNW,286,4.0,5.0,43,0.00,,,0.00,Wunderground v.1.15,2013-04-25 22:18:00,
2013-04-25 18:20:00,60.2,37.6,30.36,SW,235,4.0,5.0,43,0.00,,,0.00,Wunderground v.1.15,2013-04-25 22:20:00,
2013-04-25 18:21:00,60.5,37.9,30.36,WSW,252,4.0,12.0,43,0.00,,,0.00,Wunderground v.1.15,2013-04-25 22:21:00,
2013-04-25 18:23:00,60.5,37.9,30.36,NW,322,5.0,12.0,43,0.00,,,0.00,Wunderground v.1.15,2013-04-25 22:23:00,
2013-04-25 18:25:00,60.4,37.2,30.36,NW,313,5.0,5.0,42,0.00,,,0.00,Wunderground v.1.15,2013-04-25 22:25:00,
2013-04-25 18:26:00,60.2,38.2,30.36,NNW,330,4.0,5.0,44,0.00,,,0.00,Wunderground v.1.15,2013-04-25 22:26:00,
2013-04-25 18:28:00,60.0,37.4,30.36,West,259,4.0,5.0,43,0.00,,,0.00,Wunderground v.1.15,2013-04-25 22:28:00,
2013-04-25 18:31:00,59.7,38.9,30.36,NW,315,4.0,6.0,46,0.00,,,0.00,Wunderground v.1.15,2013-04-25 22:31:00,
2013-04-25 18:32:00,59.7,38.3,30.36,WNW,303,3.0,6.0,45,0.00,,,0.00,Wunderground v.1.15,2013-04-25 22:32:00,
2013-04-25 18:34:00,59.6,38.8,30.36,NW,323,3.0,4.0,46,0.00,,,0.00,Wunderground v.1.15,2013-04-25 22:34:00,
2013-04-25 18:37:00,59.8,37.2,30.36,West,273,3.0,6.0,43,0.00,,,0.00,Wunderground v.1.15,2013-04-25 22:37:00,
2013-04-25 18:39:00,59.9,37.3,30.36,NNW,336,3.0,6.0,43,0.00,,,0.00,Wunderground v.1.15,2013-04-25 22:39:00,
2013-04-25 18:42:00,60.1,38.1,30.36,West,268,3.0,6.0,44,0.00,,,0.00,Wunderground v.1.15,2013-04-25 22:42:00,
2013-04-25 18:44:00,60.2,37.6,30.36,NW,309,3.0,3.0,43,0.00,,,0.00,Wunderground v.1.15,2013-04-25 22:44:00,
2013-04-25 18:47:00,60.5,37.3,30.36,West,271,3.0,7.0,42,0.00,,,0.00,Wunderground v.1.15,2013-04-25 22:47:00,
2013-04-25 18:49:00,60.4,36.6,30.36,WSW,258,3.0,7.0,41,0.00,,,0.00,Wunderground v.1.15,2013-04-25 22:49:00,
2013-04-25 18:52:00,60.4,37.8,30.36,West,279,4.0,7.0,43,0.00,,,0.00,Wunderground v.1.15,2013-04-25 22:52:00,
2013-04-25 18:54:00,60.2,37.0,30.36,NW,317,4.0,5.0,42,0.00,,,0.00,Wunderground v.1.15,2013-04-25 22:54:00,
2013-04-25 18:55:00,60.0,36.2,30.36,West,271,4.0,5.0,41,0.00,,,0.00,Wunderground v.1.15,2013-04-25 22:55:00,
2013-04-25 19:00:00,59.8,36.6,30.37,NW,311,4.0,9.0,42,0.00,,,0.00,Wunderground v.1.15,2013-04-25 23:00:00,
2013-04-25 19:01:00,59.8,36.6,30.37,West,276,4.0,9.0,42,0.00,,,0.00,Wunderground v.1.15,2013-04-25 23:01:00,
2013-04-25 19:02:00,59.6,36.5,30.37,WSW,256,5.0,9.0,42,0.00,,,0.00,Wunderground v.1.15,2013-04-25 23:02:00,
2013-04-25 19:04:00,59.6,37.1,30.36,WNW,289,4.0,5.0,43,0.00,,,0.00,Wunderground v.1.15,2013-04-25 23:04:00,
2013-04-25 19:06:00,59.6,37.6,30.36,WSW,249,4.0,5.0,44,0.00,,,0.00,Wunderground v.1.15,2013-04-25 23:06:00,
2013-04-25 19:07:00,59.7,37.2,30.36,WNW,286,4.0,5.0,43,0.00,,,0.00,Wunderground v.1.15,2013-04-25 23:07:00,
2013-04-25 19:09:00,59.8,37.2,30.36,NW,311,3.0,5.0,43,0.00,,,0.00,Wunderground v.1.15,2013-04-25 23:09:00,
2013-04-25 19:10:00,59.8,37.8,30.37,NW,309,3.0,5.0,44,0.00,,,0.00,Wunderground v.1.15,2013-04-25 23:10:00,
2013-04-25 19:14:00,59.7,37.2,30.37,WNW,298,3.0,7.0,43,0.00,,,0.00,Wunderground v.1.15,2013-04-25 23:14:00,
2013-04-25 19:15:00,59.6,37.6,30.37,NNW,327,3.0,7.0,44,0.00,,,0.00,Wunderground v.1.15,2013-04-25 23:15:00,
2013-04-25 19:16:00,59.5,36.4,30.37,NNW,328,3.0,7.0,42,0.00,,,0.00,Wunderground v.1.15,2013-04-25 23:16:00,
2013-04-25 19:18:00,59.4,36.9,30.36,West,261,3.0,7.0,43,0.00,,,0.00,Wunderground v.1.15,2013-04-25 23:18:00,
2013-04-25 19:21:00,59.3,37.9,30.36,West,275,4.0,7.0,45,0.00,,,0.00,Wunderground v.1.15,2013-04-25 23:21:00,
2013-04-25 19:22:00,59.3,38.5,30.37,WNW,285,3.0,7.0,46,0.00,,,0.00,Wunderground v.1.15,2013-04-25 23:22:00,
2013-04-25 19:23:00,59.2,36.7,30.37,WSW,250,3.0,4.0,43,0.00,,,0.00,Wunderground v.1.15,2013-04-25 23:23:00,
2013-04-25 19:27:00,58.9,36.4,30.37,WNW,292,3.0,4.0,43,0.00,,,0.00,Wunderground v.1.15,2013-04-25 23:27:00,
2013-04-25 19:29:00,58.8,36.9,30.37,WNW,288,3.0,4.0,44,0.00,,,0.00,Wunderground v.1.15,2013-04-25 23:29:00,
2013-04-25 19:31:00,58.7,37.4,30.37,West,279,3.0,4.0,45,0.00,,,0.00,Wunderground v.1.15,2013-04-25 23:31:00,
2013-04-25 19:32:00,58.6,37.3,30.37,NW,315,3.0,4.0,45,0.00,,,0.00,Wunderground v.1.15,2013-04-25 23:32:00,
2013-04-25 19:34:00,58.6,36.7,30.37,West,263,3.0,4.0,44,0.00,,,0.00,Wunderground v.1.15,2013-04-25 23:34:00,
2013-04-25 19:36:00,58.5,36.1,30.37,West,271,3.0,5.0,43,0.00,,,0.00,Wunderground v.1.15,2013-04-25 23:36:00,
2013-04-25 19:38:00,58.3,37.0,30.37,West,261,3.0,5.0,45,0.00,,,0.00,Wunderground v.1.15,2013-04-25 23:38:00,
2013-04-25 19:41:00,58.1,36.3,30.37,West,276,3.0,5.0,44,0.00,,,0.00,Wunderground v.1.15,2013-04-25 23:41:00,
2013-04-25 19:43:00,58.0,36.8,30.37,WNW,300,2.0,2.0,45,0.00,,,0.00,Wunderground v.1.15,2013-04-25 23:43:00,
2013-04-25 19:47:00,57.9,37.2,30.37,NW,306,2.0,2.0,46,0.00,,,0.00,Wunderground v.1.15,2013-04-25 23:47:00,
2013-04-25 19:49:00,57.8,37.1,30.37,WNW,284,2.0,2.0,46,0.00,,,0.00,Wunderground v.1.15,2013-04-25 23:49:00,
2013-04-25 19:53:00,57.7,36.5,30.37,WSW,258,3.0,6.0,45,0.00,,,0.00,Wunderground v.1.15,2013-04-25 23:53:00,
2013-04-25 19:54:00,57.6,36.4,30.37,NW,324,3.0,4.0,45,0.00,,,0.00,Wunderground v.1.15,2013-04-25 23:54:00,
2013-04-25 19:55:00,57.5,36.9,30.37,NW,324,2.0,4.0,46,0.00,,,0.00,Wunderground v.1.15,2013-04-25 23:55:00,
2013-04-25 19:58:00,57.3,36.1,30.37,West,280,2.0,4.0,45,0.00,,,0.00,Wunderground v.1.15,2013-04-25 23:58:00,
2013-04-25 19:59:00,57.2,36.6,30.37,West,264,3.0,4.0,46,0.00,,,0.00,Wunderground v.1.15,2013-04-25 23:59:00,
2013-04-25 20:05:00,56.7,37.2,30.37,West,279,2.0,2.0,48,0.00,,,0.00,Wunderground v.1.15,2013-04-26 00:05:00,
2013-04-25 20:07:00,56.7,36.7,30.37,NW,306,2.0,2.0,47,0.00,,,0.00,Wunderground v.1.15,2013-04-26 00:07:00,
2013-04-25 20:10:00,56.6,36.6,30.37,West,267,2.0,3.0,47,0.00,,,0.00,Wunderground v.1.15,2013-04-26 00:10:00,
2013-04-25 20:12:00,56.5,36.0,30.37,West,267,2.0,3.0,46,0.00,,,0.00,Wunderground v.1.15,2013-04-26 00:12:00,
2013-04-25 20:15:00,56.4,35.3,30.37,WNW,301,2.0,2.0,45,0.00,,,0.00,Wunderground v.1.15,2013-04-26 00:15:00,
2013-04-25 20:16:00,56.4,35.9,30.37,WNW,301,2.0,2.0,46,0.00,,,0.00,Wunderground v.1.15,2013-04-26 00:16:00,
2013-04-25 20:17:00,56.3,35.8,30.37,West,261,2.0,2.0,46,0.00,,,0.00,Wunderground v.1.15,2013-04-26 00:17:00,
2013-04-25 20:20:00,56.2,35.7,30.37,West,261,2.0,2.0,46,0.00,,,0.00,Wunderground v.1.15,2013-04-26 00:20:00,
2013-04-25 20:22:00,56.1,36.7,30.37,West,261,2.0,2.0,48,0.00,,,0.00,Wunderground v.1.15,2013-04-26 00:22:00,
2013-04-25 20:23:00,55.9,35.4,30.37,NW,310,1.0,2.0,46,0.00,,,0.00,Wunderground v.1.15,2013-04-26 00:23:00,
2013-04-25 20:25:00,55.8,35.3,30.37,WNW,300,1.0,2.0,46,0.00,,,0.00,Wunderground v.1.15,2013-04-26 00:25:00,
2013-04-25 20:30:00,55.6,35.7,30.37,WNW,294,1.0,2.0,47,0.00,,,0.00,Wunderground v.1.15,2013-04-26 00:30:00,
2013-04-25 20:32:00,55.4,36.0,30.37,WNW,294,1.0,2.0,48,0.00,,,0.00,Wunderground v.1.15,2013-04-26 00:32:00,
2013-04-25 20:34:00,55.3,35.4,30.37,WNW,286,1.0,1.0,47,0.00,,,0.00,Wunderground v.1.15,2013-04-26 00:34:00,
2013-04-25 20:38:00,55.1,35.2,30.37,WNW,286,0.0,1.0,47,0.00,,,0.00,Wunderground v.1.15,2013-04-26 00:38:00,
2013-04-25 20:39:00,55.0,35.1,30.38,WNW,288,0.0,2.0,47,0.00,,,0.00,Wunderground v.1.15,2013-04-26 00:39:00,
2013-04-25 20:42:00,54.9,35.6,30.38,WNW,288,0.0,2.0,48,0.00,,,0.00,Wunderground v.1.15,2013-04-26 00:42:00,
2013-04-25 20:43:00,54.8,35.5,30.38,WNW,288,0.0,0.0,48,0.00,,,0.00,Wunderground v.1.15,2013-04-26 00:43:00,
2013-04-25 20:44:00,54.7,35.4,30.38,WNW,288,0.0,0.0,48,0.00,,,0.00,Wunderground v.1.15,2013-04-26 00:44:00,
2013-04-25 20:49:00,54.5,35.7,30.38,WNW,288,0.0,0.0,49,0.00,,,0.00,Wunderground v.1.15,2013-04-26 00:49:00,
2013-04-25 20:50:00,54.4,35.6,30.38,WNW,288,0.0,0.0,49,0.00,,,0.00,Wunderground v.1.15,2013-04-26 00:50:00,
2013-04-25 20:53:00,54.2,35.4,30.38,WNW,298,0.0,0.0,49,0.00,,,0.00,Wunderground v.1.15,2013-04-26 00:53:00,
2013-04-25 20:57:00,54.1,35.9,30.38,WNW,298,0.0,1.0,50,0.00,,,0.00,Wunderground v.1.15,2013-04-26 00:57:00,
2013-04-25 20:58:00,54.0,35.8,30.38,WNW,298,0.0,1.0,50,0.00,,,0.00,Wunderground v.1.15,2013-04-26 00:58:00,
2013-04-25 21:00:00,53.9,35.7,30.38,WNW,298,0.0,1.0,50,0.00,,,0.00,Wunderground v.1.15,2013-04-26 01:00:00,
2013-04-25 21:04:00,53.7,36.0,30.39,NW,326,0.0,0.0,51,0.00,,,0.00,Wunderground v.1.15,2013-04-26 01:04:00,
2013-04-25 21:06:00,53.7,36.0,30.39,NW,326,0.0,1.0,51,0.00,,,0.00,Wunderground v.1.15,2013-04-26 01:06:00,
2013-04-25 21:08:00,53.6,35.9,30.39,NW,326,0.0,1.0,51,0.00,,,0.00,Wunderground v.1.15,2013-04-26 01:08:00,
2013-04-25 21:10:00,53.5,35.8,30.39,NW,326,0.0,1.0,51,0.00,,,0.00,Wunderground v.1.15,2013-04-26 01:10:00,
2013-04-25 21:13:00,53.4,36.2,30.39,NW,326,0.0,0.0,52,0.00,,,0.00,Wunderground v.1.15,2013-04-26 01:13:00,
2013-04-25 21:14:00,53.4,36.2,30.39,NW,326,0.0,0.0,52,0.00,,,0.00,Wunderground v.1.15,2013-04-26 01:14:00,
2013-04-25 21:15:00,53.4,36.2,30.39,NW,326,0.0,1.0,52,0.00,,,0.00,Wunderground v.1.15,2013-04-26 01:15:00,
2013-04-25 21:19:00,53.2,36.5,30.39,NW,326,0.0,1.0,53,0.00,,,0.00,Wunderground v.1.15,2013-04-26 01:19:00,
2013-04-25 21:20:00,53.2,36.5,30.39,NW,326,0.0,1.0,53,0.00,,,0.00,Wunderground v.1.15,2013-04-26 01:20:00,
2013-04-25 21:23:00,52.9,36.7,30.39,NW,326,0.0,0.0,54,0.00,,,0.00,Wunderground v.1.15,2013-04-26 01:23:00,
2013-04-25 21:25:00,52.9,36.7,30.39,NW,326,0.0,1.0,54,0.00,,,0.00,Wunderground v.1.15,2013-04-26 01:25:00,
2013-04-25 21:26:00,52.8,36.6,30.40,NW,326,0.0,1.0,54,0.00,,,0.00,Wunderground v.1.15,2013-04-26 01:26:00,
2013-04-25 21:30:00,52.5,36.8,30.40,NW,326,1.0,1.0,55,0.00,,,0.00,Wunderground v.1.15,2013-04-26 01:30:00,
2013-04-25 21:32:00,52.3,36.6,30.40,NW,326,0.0,1.0,55,0.00,,,0.00,Wunderground v.1.15,2013-04-26 01:32:00,
2013-04-25 21:33:00,52.2,36.5,30.40,NW,326,0.0,0.0,55,0.00,,,0.00,Wunderground v.1.15,2013-04-26 01:33:00,
2013-04-25 21:35:00,52.1,36.9,30.40,NW,326,0.0,1.0,56,0.00,,,0.00,Wunderground v.1.15,2013-04-26 01:35:00,
2013-04-25 21:37:00,52.1,36.4,30.40,NW,326,0.0,1.0,55,0.00,,,0.00,Wunderground v.1.15,2013-04-26 01:37:00,
2013-04-25 21:40:00,52.0,36.3,30.40,NW,326,0.0,1.0,55,0.00,,,0.00,Wunderground v.1.15,2013-04-26 01:40:00,
2013-04-25 21:43:00,52.0,36.3,30.40,NW,326,0.0,1.0,55,0.00,,,0.00,Wunderground v.1.15,2013-04-26 01:43:00,
2013-04-25 21:47:00,51.9,36.2,30.40,NW,326,0.0,0.0,55,0.00,,,0.00,Wunderground v.1.15,2013-04-26 01:47:00,
2013-04-25 21:50:00,51.7,36.0,30.40,NW,326,0.0,0.0,55,0.00,,,0.00,Wunderground v.1.15,2013-04-26 01:50:00,
2013-04-25 21:54:00,51.6,35.5,30.41,NW,326,0.0,0.0,54,0.00,,,0.00,Wunderground v.1.15,2013-04-26 01:54:00,
2013-04-25 21:55:00,51.6,35.5,30.41,NW,326,0.0,0.0,54,0.00,,,0.00,Wunderground v.1.15,2013-04-26 01:55:00,
2013-04-25 21:57:00,51.5,35.4,30.41,NW,326,0.0,0.0,54,0.00,,,0.00,Wunderground v.1.15,2013-04-26 01:57:00,
2013-04-25 22:00:00,51.4,35.8,30.41,NW,326,0.0,0.0,55,0.00,,,0.00,Wunderground v.1.15,2013-04-26 02:00:00,
2013-04-25 22:02:00,51.4,35.8,30.41,NNW,328,0.0,0.0,55,0.00,,,0.00,Wunderground v.1.15,2013-04-26 02:02:00,
2013-04-25 22:04:00,51.4,35.8,30.41,NNW,328,0.0,0.0,55,0.00,,,0.00,Wunderground v.1.15,2013-04-26 02:04:00,
2013-04-25 22:07:00,51.3,35.2,30.41,NNW,328,0.0,0.0,54,0.00,,,0.00,Wunderground v.1.15,2013-04-26 02:07:00,
2013-04-25 22:09:00,51.3,35.2,30.41,NNW,328,0.0,0.0,54,0.00,,,0.00,Wunderground v.1.15,2013-04-26 02:09:00,
2013-04-25 22:11:00,51.3,35.2,30.41,NNW,328,0.0,0.0,54,0.00,,,0.00,Wunderground v.1.15,2013-04-26 02:11:00,
2013-04-25 22:13:00,51.2,35.1,30.41,NNW,328,0.0,0.0,54,0.00,,,0.00,Wunderground v.1.15,2013-04-26 02:13:00,
2013-04-25 22:15:00,51.2,35.1,30.41,NNW,328,0.0,0.0,54,0.00,,,0.00,Wunderground v.1.15,2013-04-26 02:15:00,
2013-04-25 22:16:00,51.1,35.0,30.42,NNW,328,0.0,0.0,54,0.00,,,0.00,Wunderground v.1.15,2013-04-26 02:16:00,
2013-04-25 22:22:00,50.8,35.2,30.42,NNW,330,0.0,0.0,55,0.00,,,0.00,Wunderground v.1.15,2013-04-26 02:22:00,
2013-04-25 22:23:00,50.7,35.1,30.42,NNW,330,0.0,0.0,55,0.00,,,0.00,Wunderground v.1.15,2013-04-26 02:23:00,
2013-04-25 22:24:00,50.7,35.1,30.42,NNW,330,0.0,0.0,55,0.00,,,0.00,Wunderground v.1.15,2013-04-26 02:24:00,
2013-04-25 22:27:00,50.6,35.5,30.42,NNW,330,0.0,0.0,56,0.00,,,0.00,Wunderground v.1.15,2013-04-26 02:27:00,
2013-04-25 22:30:00,50.4,35.3,30.42,NNW,346,0.0,1.0,56,0.00,,,0.00,Wunderground v.1.15,2013-04-26 02:30:00,
2013-04-25 22:32:00,50.4,35.3,30.42,NNW,346,0.0,1.0,56,0.00,,,0.00,Wunderground v.1.15,2013-04-26 02:32:00,
2013-04-25 22:34:00,50.3,35.2,30.42,NNW,346,0.0,0.0,56,0.00,,,0.00,Wunderground v.1.15,2013-04-26 02:34:00,
2013-04-25 22:35:00,50.3,35.2,30.42,NNW,346,0.0,3.0,56,0.00,,,0.00,Wunderground v.1.15,2013-04-26 02:35:00,
2013-04-25 22:38:00,50.3,35.2,30.42,NNW,346,0.0,3.0,56,0.00,,,0.00,Wunderground v.1.15,2013-04-26 02:38:00,
2013-04-25 22:40:00,50.3,34.7,30.42,NNW,346,1.0,3.0,55,0.00,,,0.00,Wunderground v.1.15,2013-04-26 02:40:00,
2013-04-25 22:42:00,50.3,34.7,30.42,NNW,346,1.0,3.0,55,0.00,,,0.00,Wunderground v.1.15,2013-04-26 02:42:00,
2013-04-25 22:48:00,50.1,34.5,30.42,NNW,346,0.0,0.0,55,0.00,,,0.00,Wunderground v.1.15,2013-04-26 02:48:00,
2013-04-25 22:53:00,49.9,34.4,30.43,NNW,346,0.0,0.0,55,0.00,,,0.00,Wunderground v.1.15,2013-04-26 02:53:00,
2013-04-25 22:55:00,49.8,34.7,30.43,NNW,346,0.0,0.0,56,0.00,,,0.00,Wunderground v.1.15,2013-04-26 02:55:00,
2013-04-25 22:56:00,49.8,34.7,30.43,NNW,346,0.0,0.0,56,0.00,,,0.00,Wunderground v.1.15,2013-04-26 02:56:00,
2013-04-25 22:59:00,49.6,34.5,30.43,NNW,346,0.0,0.0,56,0.00,,,0.00,Wunderground v.1.15,2013-04-26 02:59:00,
2013-04-25 23:02:00,49.6,34.5,30.43,NNW,346,0.0,0.0,56,0.00,,,0.00,Wunderground v.1.15,2013-04-26 03:02:00,
2013-04-25 23:03:00,49.5,34.0,30.43,NNW,346,0.0,0.0,55,0.00,,,0.00,Wunderground v.1.15,2013-04-26 03:03:00,
2013-04-25 23:05:00,49.5,34.4,30.43,NNW,346,0.0,0.0,56,0.00,,,0.00,Wunderground v.1.15,2013-04-26 03:05:00,
2013-04-25 23:09:00,49.4,33.9,30.43,NNW,346,0.0,0.0,55,0.00,,,0.00,Wunderground v.1.15,2013-04-26 03:09:00,
2013-04-25 23:10:00,49.4,33.9,30.43,NNW,346,0.0,0.0,55,0.00,,,0.00,Wunderground v.1.15,2013-04-26 03:10:00,
2013-04-25 23:12:00,49.4,33.9,30.43,NNW,346,0.0,0.0,55,0.00,,,0.00,Wunderground v.1.15,2013-04-26 03:12:00,
2013-04-25 23:13:00,49.4,33.9,30.43,NNW,346,0.0,0.0,55,0.00,,,0.00,Wunderground v.1.15,2013-04-26 03:13:00,
2013-04-25 23:17:00,49.3,33.8,30.43,NNW,346,0.0,0.0,55,0.00,,,0.00,Wunderground v.1.15,2013-04-26 03:17:00,
2013-04-25 23:19:00,49.2,33.7,30.42,NNW,346,0.0,0.0,55,0.00,,,0.00,Wunderground v.1.15,2013-04-26 03:19:00,
2013-04-25 23:21:00,49.2,34.2,30.42,NNW,346,0.0,0.0,56,0.00,,,0.00,Wunderground v.1.15,2013-04-26 03:21:00,
2013-04-25 23:22:00,49.1,33.6,30.42,NNW,346,0.0,0.0,55,0.00,,,0.00,Wunderground v.1.15,2013-04-26 03:22:00,
2013-04-25 23:24:00,49.0,33.5,30.42,NNW,346,0.0,0.0,55,0.00,,,0.00,Wunderground v.1.15,2013-04-26 03:24:00,
2013-04-25 23:25:00,49.0,33.5,30.42,NNW,346,0.0,0.0,55,0.00,,,0.00,Wunderground v.1.15,2013-04-26 03:25:00,
2013-04-25 23:26:00,49.0,33.5,30.42,NNW,346,0.0,0.0,55,0.00,,,0.00,Wunderground v.1.15,2013-04-26 03:26:00,
2013-04-25 23:27:00,48.9,33.4,30.42,NNW,346,0.0,1.0,55,0.00,,,0.00,Wunderground v.1.15,2013-04-26 03:27:00,
2013-04-25 23:29:00,48.8,33.3,30.42,NNW,346,0.0,1.0,55,0.00,,,0.00,Wunderground v.1.15,2013-04-26 03:29:00,
2013-04-25 23:31:00,48.8,33.3,30.42,NNW,346,0.0,1.0,55,0.00,,,0.00,Wunderground v.1.15,2013-04-26 03:31:00,
2013-04-25 23:33:00,48.8,33.3,30.42,NNW,346,0.0,1.0,55,0.00,,,0.00,Wunderground v.1.15,2013-04-26 03:33:00,
2013-04-25 23:34:00,48.8,33.3,30.42,NNW,346,0.0,0.0,55,0.00,,,0.00,Wunderground v.1.15,2013-04-26 03:34:00,
2013-04-25 23:35:00,48.8,33.3,30.42,NNW,346,0.0,0.0,55,0.00,,,0.00,Wunderground v.1.15,2013-04-26 03:35:00,
2013-04-25 23:38:00,48.9,33.4,30.42,NNW,346,0.0,0.0,55,0.00,,,0.00,Wunderground v.1.15,2013-04-26 03:38:00,
2013-04-25 23:39:00,48.9,33.0,30.42,NNW,346,0.0,0.0,54,0.00,,,0.00,Wunderground v.1.15,2013-04-26 03:39:00,
2013-04-25 23:42:00,48.8,33.3,30.42,NNW,346,0.0,0.0,55,0.00,,,0.00,Wunderground v.1.15,2013-04-26 03:42:00,
2013-04-25 23:43:00,48.8,33.3,30.42,NNW,346,0.0,0.0,55,0.00,,,0.00,Wunderground v.1.15,2013-04-26 03:43:00,
2013-04-25 23:49:00,48.6,33.1,30.42,NNW,346,0.0,0.0,55,0.00,,,0.00,Wunderground v.1.15,2013-04-26 03:49:00,
2013-04-25 23:50:00,48.5,33.5,30.42,NNW,346,0.0,0.0,56,0.00,,,0.00,Wunderground v.1.15,2013-04-26 03:50:00,
2013-04-25 23:51:00,48.4,33.4,30.43,NNW,346,0.0,0.0,56,0.00,,,0.00,Wunderground v.1.15,2013-04-26 03:51:00,
2013-04-25 23:54:00,48.4,33.4,30.43,NNW,346,0.0,0.0,56,0.00,,,0.00,Wunderground v.1.15,2013-04-26 03:54:00,
2013-04-25 23:55:00,48.4,33.9,30.42,NNW,346,0.0,0.0,57,0.00,,,0.00,Wunderground v.1.15,2013-04-26 03:55:00,
2013-04-25 23:56:00,48.4,33.9,30.43,NNW,346,0.0,0.0,57,0.00,,,0.00,Wunderground v.1.15,2013-04-26 03:56:00,
2013-04-25 23:59:00,48.4,33.4,30.42,NNW,346,0.0,0.0,56,0.00,,,0.00,Wunderground v.1.15,2013-04-26 03:59:00,